Wetterdaten: Samstag, 16.08.2014
Datum Zeit Temp. Aussen +5cm Feuchte Auss Luftdruck Regen Sonnenschein Regendauer UV Solar Windben
16.08.2014 00:00 13,7 C 12,8 C 97 % 1015,9 hPa 0,0 l/m 0 min 0 min 0,0 UV-I 0 W/m 14,2 km/h (3 Bft)
16.08.2014 00:02 13,7 C 12,8 C 97 % 1015,9 hPa 0,0 l/m 0 min 0 min 0,0 UV-I 0 W/m 10,7 km/h (2 Bft)
16.08.2014 00:05 13,7 C 12,8 C 97 % 1015,9 hPa 0,0 l/m 0 min 0 min 0,0 UV-I 0 W/m 10,7 km/h (2 Bft)
16.08.2014 00:06 13,8 C 12,8 C 97 % 1015,9 hPa 0,0 l/m 0 min 0 min 0,0 UV-I 0 W/m 0,0 km/h (0 Bft)
16.08.2014 00:08 13,8 C 12,8 C 97 % 1016,0 hPa 0,0 l/m 0 min 0 min 0,0 UV-I 0 W/m 10,7 km/h (2 Bft)
16.08.2014 00:10 13,8 C 12,8 C 97 % 1016,0 hPa 0,0 l/m 0 min 0 min 0,0 UV-I 0 W/m 14,2 km/h (3 Bft)
16.08.2014 00:12 13,8 C 12,8 C 97 % 1016,1 hPa 0,0 l/m 0 min 0 min 0,0 UV-I 0 W/m 21,3 km/h (4 Bft)
16.08.2014 00:14 13,7 C 12,8 C 97 % 1016,2 hPa 0,0 l/m 0 min 0 min 0,0 UV-I 0 W/m 17,7 km/h (3 Bft)
16.08.2014 00:16 13,7 C 12,8 C 97 % 1016,1 hPa 0,0 l/m 0 min 0 min 0,0 UV-I 0 W/m 10,7 km/h (2 Bft)
16.08.2014 00:18 13,7 C 12,8 C 97 % 1016,2 hPa 0,0 l/m 0 min 0 min 0,0 UV-I 0 W/m 17,7 km/h (3 Bft)
16.08.2014 00:20 13,7 C 12,8 C 97 % 1016,2 hPa 0,0 l/m 0 min 0 min 0,0 UV-I 0 W/m 17,7 km/h (3 Bft)
16.08.2014 00:22 13,7 C 12,8 C 97 % 1016,2 hPa 0,0 l/m 0 min 0 min 0,0 UV-I 0 W/m 14,2 km/h (3 Bft)
16.08.2014 00:24 13,7 C 12,8 C 97 % 1016,3 hPa 0,0 l/m 0 min 0 min 0,0 UV-I 0 W/m 17,7 km/h (3 Bft)
16.08.2014 00:26 13,8 C 12,8 C 97 % 1016,3 hPa 0,0 l/m 0 min 0 min 0,0 UV-I 0 W/m 17,7 km/h (3 Bft)
16.08.2014 00:28 13,8 C 12,8 C 97 % 1016,4 hPa 0,0 l/m 0 min 0 min 0,0 UV-I 0 W/m 7,1 km/h (2 Bft)
16.08.2014 00:30 13,8 C 12,8 C 97 % 1016,4 hPa 0,0 l/m 0 min 0 min 0,0 UV-I 0 W/m 14,2 km/h (3 Bft)
16.08.2014 00:32 13,8 C 12,8 C 97 % 1016,4 hPa 0,0 l/m 0 min 0 min 0,0 UV-I 0 W/m 10,7 km/h (2 Bft)
16.08.2014 00:34 13,8 C 12,8 C 97 % 1016,3 hPa 0,0 l/m 0 min 0 min 0,0 UV-I 0 W/m 7,1 km/h (2 Bft)
16.08.2014 00:36 13,8 C 12,8 C 97 % 1016,4 hPa 0,0 l/m 0 min 0 min 0,0 UV-I 0 W/m 3,5 km/h (1 Bft)
16.08.2014 00:38 13,8 C 12,8 C 97 % 1016,3 hPa 0,0 l/m 0 min 0 min 0,0 UV-I 0 W/m 14,2 km/h (3 Bft)
16.08.2014 00:40 13,8 C 12,8 C 97 % 1016,3 hPa 0,0 l/m 0 min 0 min 0,0 UV-I 0 W/m 3,5 km/h (1 Bft)
16.08.2014 00:42 13,8 C 12,8 C 97 % 1016,4 hPa 0,0 l/m 0 min 0 min 0,0 UV-I 0 W/m 10,7 km/h (2 Bft)
16.08.2014 00:44 13,8 C 12,8 C 97 % 1016,4 hPa 0,0 l/m 0 min 0 min 0,0 UV-I 0 W/m 10,7 km/h (2 Bft)
16.08.2014 00:46 13,8 C 12,8 C 97 % 1016,4 hPa 0,0 l/m 0 min 0 min 0,0 UV-I 0 W/m 17,7 km/h (3 Bft)
16.08.2014 00:48 13,8 C 12,8 C 97 % 1016,4 hPa 0,0 l/m 0 min 0 min 0,0 UV-I 0 W/m 3,5 km/h (1 Bft)
16.08.2014 00:50 13,8 C 12,8 C 97 % 1016,4 hPa 0,0 l/m 0 min 0 min 0,0 UV-I 0 W/m 17,7 km/h (3 Bft)
16.08.2014 00:52 13,8 C 12,8 C 97 % 1016,4 hPa 0,0 l/m 0 min 0 min 0,0 UV-I 0 W/m 17,7 km/h (3 Bft)
16.08.2014 00:54 13,8 C 12,8 C 97 % 1016,3 hPa 0,0 l/m 0 min 0 min 0,0 UV-I 0 W/m 17,7 km/h (3 Bft)
16.08.2014 00:56 13,8 C 12,8 C 97 % 1016,4 hPa 0,0 l/m 0 min 0 min 0,0 UV-I 0 W/m 17,7 km/h (3 Bft)
16.08.2014 00:58 13,8 C 12,8 C 97 % 1016,5 hPa 0,0 l/m 0 min 0 min 0,0 UV-I 0 W/m 17,7 km/h (3 Bft)
16.08.2014 01:00 13,8 C 12,8 C 97 % 1016,5 hPa 0,0 l/m 0 min 0 min 0,0 UV-I 0 W/m 7,1 km/h (2 Bft)
16.08.2014 01:02 13,8 C 12,8 C 97 % 1016,5 hPa 0,0 l/m 0 min 0 min 0,0 UV-I 0 W/m 14,2 km/h (3 Bft)
16.08.2014 01:04 13,8 C 12,8 C 97 % 1016,5 hPa 0,0 l/m 0 min 0 min 0,0 UV-I 0 W/m 14,2 km/h (3 Bft)
16.08.2014 01:06 13,8 C 12,8 C 97 % 1016,5 hPa 0,0 l/m 0 min 0 min 0,0 UV-I 0 W/m 17,7 km/h (3 Bft)
16.08.2014 01:08 13,7 C 12,8 C 97 % 1016,5 hPa 0,0 l/m 0 min 0 min 0,0 UV-I 0 W/m 17,7 km/h (3 Bft)
16.08.2014 01:10 13,7 C 12,8 C 97 % 1016,6 hPa 0,0 l/m 0 min 0 min 0,0 UV-I 0 W/m 14,2 km/h (3 Bft)
16.08.2014 01:12 13,7 C 12,8 C 97 % 1016,5 hPa 0,0 l/m 0 min 0 min 0,0 UV-I 0 W/m 14,2 km/h (3 Bft)
16.08.2014 01:14 13,7 C 12,8 C 97 % 1016,5 hPa 0,0 l/m 0 min 0 min 0,0 UV-I 0 W/m 14,2 km/h (3 Bft)
16.08.2014 01:16 13,7 C 12,8 C 97 % 1016,5 hPa 0,0 l/m 0 min 0 min 0,0 UV-I 0 W/m 24,7 km/h (4 Bft)
16.08.2014 01:18 13,7 C 12,8 C 97 % 1016,5 hPa 0,0 l/m 0 min 0 min 0,0 UV-I 0 W/m 14,2 km/h (3 Bft)
16.08.2014 01:20 13,7 C 12,8 C 97 % 1016,5 hPa 0,0 l/m 0 min 0 min 0,0 UV-I 0 W/m 14,2 km/h (3 Bft)
16.08.2014 01:22 13,7 C 12,8 C 97 % 1016,5 hPa 0,0 l/m 0 min 0 min 0,0 UV-I 0 W/m 14,2 km/h (3 Bft)
16.08.2014 01:24 13,7 C 12,8 C 97 % 1016,5 hPa 0,0 l/m 0 min 0 min 0,0 UV-I 0 W/m 14,2 km/h (3 Bft)
16.08.2014 01:26 13,7 C 12,8 C 97 % 1016,5 hPa 0,0 l/m 0 min 0 min 0,0 UV-I 0 W/m 0,0 km/h (0 Bft)
16.08.2014 01:28 13,7 C 12,2 C 97 % 1016,5 hPa 0,0 l/m 0 min 0 min 0,0 UV-I 0 W/m 3,5 km/h (1 Bft)
16.08.2014 01:30 13,7 C 12,2 C 97 % 1016,5 hPa 0,0 l/m 0 min 0 min 0,0 UV-I 0 W/m 7,1 km/h (2 Bft)
16.08.2014 01:32 13,6 C 12,2 C 97 % 1016,5 hPa 0,0 l/m 0 min 0 min 0,0 UV-I 0 W/m 21,3 km/h (4 Bft)
16.08.2014 01:34 13,6 C 12,2 C 97 % 1016,6 hPa 0,0 l/m 0 min 0 min 0,0 UV-I 0 W/m 14,2 km/h (3 Bft)
16.08.2014 01:36 13,6 C 12,2 C 97 % 1016,6 hPa 0,0 l/m 0 min 0 min 0,0 UV-I 0 W/m 14,2 km/h (3 Bft)
16.08.2014 01:38 13,6 C 12,2 C 97 % 1016,6 hPa 0,0 l/m 0 min 0 min 0,0 UV-I 0 W/m 14,2 km/h (3 Bft)
16.08.2014 01:40 13,5 C 12,2 C 97 % 1016,6 hPa 0,0 l/m 0 min 0 min 0,0 UV-I 0 W/m 14,2 km/h (3 Bft)
16.08.2014 01:42 13,4 C 12,2 C 97 % 1016,5 hPa 0,0 l/m 0 min 0 min 0,0 UV-I 0 W/m 14,2 km/h (3 Bft)
16.08.2014 01:44 13,4 C 12,2 C 97 % 1016,5 hPa 0,0 l/m 0 min 0 min 0,0 UV-I 0 W/m 14,2 km/h (3 Bft)
16.08.2014 01:46 13,4 C 12,2 C 97 % 1016,5 hPa 0,0 l/m 0 min 0 min 0,0 UV-I 0 W/m 21,3 km/h (4 Bft)
16.08.2014 01:48 13,3 C 12,2 C 97 % 1016,5 hPa 0,0 l/m 0 min 0 min 0,0 UV-I 0 W/m 24,7 km/h (4 Bft)
16.08.2014 01:50 13,3 C 11,7 C 97 % 1016,6 hPa 0,0 l/m 0 min 0 min 0,0 UV-I 0 W/m 21,3 km/h (4 Bft)
16.08.2014 01:52 13,2 C 11,7 C 97 % 1016,6 hPa 0,0 l/m 0 min 0 min 0,0 UV-I 0 W/m 14,2 km/h (3 Bft)
16.08.2014 01:54 13,2 C 11,7 C 97 % 1016,5 hPa 0,0 l/m 0 min 0 min 0,0 UV-I 0 W/m 10,7 km/h (2 Bft)
16.08.2014 01:56 13,1 C 11,7 C 97 % 1016,6 hPa 0,0 l/m 0 min 0 min 0,0 UV-I 0 W/m 24,7 km/h (4 Bft)
16.08.2014 01:58 13,1 C 11,7 C 97 % 1016,6 hPa 0,0 l/m 0 min 0 min 0,0 UV-I 0 W/m 24,7 km/h (4 Bft)
16.08.2014 02:00 13,1 C 11,7 C 97 % 1016,6 hPa 0,0 l/m 0 min 0 min 0,0 UV-I 0 W/m 14,2 km/h (3 Bft)
16.08.2014 02:02 13,0 C 11,7 C 97 % 1016,6 hPa 0,0 l/m 0 min 0 min 0,0 UV-I 0 W/m 14,2 km/h (3 Bft)
16.08.2014 02:04 13,0 C 11,7 C 97 % 1016,5 hPa 0,0 l/m 0 min 0 min 0,0 UV-I 0 W/m 17,7 km/h (3 Bft)
16.08.2014 02:06 12,9 C 11,7 C 97 % 1016,6 hPa 0,0 l/m 0 min 0 min 0,0 UV-I 0 W/m 7,1 km/h (2 Bft)
16.08.2014 02:08 12,9 C 11,7 C 97 % 1016,6 hPa 0,0 l/m 0 min 0 min 0,0 UV-I 0 W/m 3,5 km/h (1 Bft)
16.08.2014 02:10 12,9 C 11,7 C 97 % 1016,6 hPa 0,0 l/m 0 min 0 min 0,0 UV-I 0 W/m 7,1 km/h (2 Bft)
16.08.2014 02:12 12,9 C 11,7 C 97 % 1016,6 hPa 0,0 l/m 0 min 0 min 0,0 UV-I 0 W/m 14,2 km/h (3 Bft)
16.08.2014 02:14 12,9 C 11,7 C 97 % 1016,6 hPa 0,0 l/m 0 min 0 min 0,0 UV-I 0 W/m 0,0 km/h (0 Bft)
16.08.2014 02:16 12,9 C 11,7 C 97 % 1016,6 hPa 0,0 l/m 0 min 0 min 0,0 UV-I 0 W/m 7,1 km/h (2 Bft)
16.08.2014 02:18 12,9 C 11,7 C 97 % 1016,6 hPa 0,0 l/m 0 min 0 min 0,0 UV-I 0 W/m 0,0 km/h (0 Bft)
16.08.2014 02:20 12,9 C 11,7 C 97 % 1016,7 hPa 0,0 l/m 0 min 0 min 0,0 UV-I 0 W/m 7,1 km/h (2 Bft)
16.08.2014 02:22 12,9 C 11,7 C 97 % 1016,6 hPa 0,0 l/m 0 min 0 min 0,0 UV-I 0 W/m 17,7 km/h (3 Bft)
16.08.2014 02:24 12,9 C 11,7 C 97 % 1016,6 hPa 0,0 l/m 0 min 0 min 0,0 UV-I 0 W/m 10,7 km/h (2 Bft)
16.08.2014 02:26 12,9 C 11,7 C 97 % 1016,7 hPa 0,0 l/m 0 min 0 min 0,0 UV-I 0 W/m 24,7 km/h (4 Bft)
16.08.2014 02:28 12,9 C 11,7 C 97 % 1016,6 hPa 0,0 l/m 0 min 0 min 0,0 UV-I 0 W/m 7,1 km/h (2 Bft)
16.08.2014 02:30 12,9 C 12,2 C 97 % 1016,7 hPa 0,0 l/m 0 min 0 min 0,0 UV-I 0 W/m 17,7 km/h (3 Bft)
16.08.2014 02:32 12,9 C 12,2 C 97 % 1016,7 hPa 0,0 l/m 0 min 0 min 0,0 UV-I 0 W/m 14,2 km/h (3 Bft)
16.08.2014 02:34 13,0 C 12,2 C 98 % 1016,7 hPa 0,0 l/m 0 min 0 min 0,0 UV-I 0 W/m 0,0 km/h (0 Bft)
16.08.2014 02:36 12,9 C 12,2 C 98 % 1016,7 hPa 0,0 l/m 0 min 0 min 0,0 UV-I 0 W/m 0,0 km/h (0 Bft)
16.08.2014 02:38 13,0 C 12,2 C 98 % 1016,7 hPa 0,0 l/m 0 min 0 min 0,0 UV-I 0 W/m 10,7 km/h (2 Bft)
16.08.2014 02:40 13,0 C 12,2 C 98 % 1016,7 hPa 0,0 l/m 0 min 0 min 0,0 UV-I 0 W/m 10,7 km/h (2 Bft)
16.08.2014 02:42 13,0 C 12,2 C 98 % 1016,7 hPa 0,0 l/m 0 min 0 min 0,0 UV-I 0 W/m 3,5 km/h (1 Bft)
16.08.2014 02:44 13,0 C 12,2 C 98 % 1016,7 hPa 0,0 l/m 0 min 0 min 0,0 UV-I 0 W/m 10,7 km/h (2 Bft)
16.08.2014 02:46 13,0 C 12,2 C 98 % 1016,7 hPa 0,0 l/m 0 min 0 min 0,0 UV-I 0 W/m 3,5 km/h (1 Bft)
16.08.2014 02:48 13,0 C 12,2 C 98 % 1016,7 hPa 0,0 l/m 0 min 0 min 0,0 UV-I 0 W/m 3,5 km/h (1 Bft)
16.08.2014 02:50 13,0 C 11,7 C 98 % 1016,7 hPa 0,0 l/m 0 min 0 min 0,0 UV-I 0 W/m 0,0 km/h (0 Bft)
16.08.2014 02:52 13,0 C 12,2 C 98 % 1016,7 hPa 0,0 l/m 0 min 0 min 0,0 UV-I 0 W/m 10,7 km/h (2 Bft)
16.08.2014 02:54 13,0 C 11,7 C 98 % 1016,7 hPa 0,0 l/m 0 min 0 min 0,0 UV-I 0 W/m 14,2 km/h (3 Bft)
16.08.2014 02:56 13,0 C 12,2 C 98 % 1016,8 hPa 0,0 l/m 0 min 0 min 0,0 UV-I 0 W/m 0,0 km/h (0 Bft)
16.08.2014 02:58 13,0 C 12,2 C 98 % 1016,7 hPa 0,0 l/m 0 min 0 min 0,0 UV-I 0 W/m 0,0 km/h (0 Bft)
16.08.2014 03:00 13,0 C 12,2 C 98 % 1016,8 hPa 0,0 l/m 0 min 0 min 0,0 UV-I 0 W/m 0,0 km/h (0 Bft)
16.08.2014 03:02 13,0 C 12,2 C 97 % 1016,7 hPa 0,0 l/m 0 min 0 min 0,0 UV-I 0 W/m 7,1 km/h (2 Bft)
16.08.2014 03:04 13,0 C 12,2 C 98 % 1016,7 hPa 0,0 l/m 0 min 0 min 0,0 UV-I 0 W/m 7,1 km/h (2 Bft)
16.08.2014 03:06 13,0 C 12,2 C 98 % 1016,8 hPa 0,0 l/m 0 min 2 min 0,0 UV-I 0 W/m 14,2 km/h (3 Bft)
16.08.2014 03:08 13,1 C 12,2 C 98 % 1016,8 hPa 0,0 l/m 0 min 2 min 0,0 UV-I 0 W/m 0,0 km/h (0 Bft)
16.08.2014 03:10 13,1 C 12,2 C 98 % 1016,8 hPa 0,0 l/m 0 min 2 min 0,0 UV-I 0 W/m 14,2 km/h (3 Bft)
16.08.2014 03:12 13,1 C 12,2 C 98 % 1016,8 hPa 0,0 l/m 0 min 2 min 0,0 UV-I 0 W/m 3,5 km/h (1 Bft)
16.08.2014 03:14 13,1 C 12,2 C 98 % 1016,7 hPa 0,0 l/m 0 min 2 min 0,0 UV-I 0 W/m 0,0 km/h (0 Bft)
16.08.2014 03:16 13,1 C 12,2 C 98 % 1016,8 hPa 0,0 l/m 0 min 2 min 0,0 UV-I 0 W/m 14,2 km/h (3 Bft)
16.08.2014 03:18 13,1 C 12,2 C 98 % 1016,7 hPa 0,0 l/m 0 min 2 min 0,0 UV-I 0 W/m 14,2 km/h (3 Bft)
16.08.2014 03:20 13,1 C 12,2 C 98 % 1016,7 hPa 0,0 l/m 0 min 2 min 0,0 UV-I 0 W/m 14,2 km/h (3 Bft)
16.08.2014 03:22 13,1 C 12,2 C 98 % 1016,7 hPa 0,0 l/m 0 min 0 min 0,0 UV-I 0 W/m 14,2 km/h (3 Bft)
16.08.2014 03:24 13,1 C 12,2 C 98 % 1016,7 hPa 0,0 l/m 0 min 0 min 0,0 UV-I 0 W/m 10,7 km/h (2 Bft)
16.08.2014 03:26 13,1 C 12,2 C 98 % 1016,7 hPa 0,0 l/m 0 min 0 min 0,0 UV-I 0 W/m 14,2 km/h (3 Bft)
16.08.2014 03:28 13,1 C 12,2 C 98 % 1016,7 hPa 0,0 l/m 0 min 0 min 0,0 UV-I 0 W/m 21,3 km/h (4 Bft)
16.08.2014 03:30 13,1 C 12,2 C 98 % 1016,7 hPa 0,0 l/m 0 min 0 min 0,0 UV-I 0 W/m 10,7 km/h (2 Bft)
16.08.2014 03:32 13,0 C 11,7 C 98 % 1016,7 hPa 0,0 l/m 0 min 0 min 0,0 UV-I 0 W/m 0,0 km/h (0 Bft)
16.08.2014 03:34 12,9 C 11,7 C 98 % 1016,7 hPa 0,0 l/m 0 min 0 min 0,0 UV-I 0 W/m 10,7 km/h (2 Bft)
16.08.2014 03:36 12,9 C 11,7 C 98 % 1016,7 hPa 0,0 l/m 0 min 0 min 0,0 UV-I 0 W/m 10,7 km/h (2 Bft)
16.08.2014 03:38 12,9 C 11,7 C 98 % 1016,7 hPa 0,0 l/m 0 min 0 min 0,0 UV-I 0 W/m 7,1 km/h (2 Bft)
16.08.2014 03:40 12,8 C 11,7 C 98 % 1016,7 hPa 0,0 l/m 0 min 0 min 0,0 UV-I 0 W/m 14,2 km/h (3 Bft)
16.08.2014 03:42 12,8 C 11,7 C 98 % 1016,8 hPa 0,0 l/m 0 min 0 min 0,0 UV-I 0 W/m 21,3 km/h (4 Bft)
16.08.2014 03:44 12,8 C 11,7 C 98 % 1016,7 hPa 0,0 l/m 0 min 0 min 0,0 UV-I 0 W/m 17,7 km/h (3 Bft)
16.08.2014 03:46 12,8 C 11,7 C 98 % 1016,8 hPa 0,0 l/m 0 min 0 min 0,0 UV-I 0 W/m 21,3 km/h (4 Bft)
16.08.2014 03:48 12,8 C 11,7 C 98 % 1016,7 hPa 0,0 l/m 0 min 0 min 0,0 UV-I 0 W/m 21,3 km/h (4 Bft)
16.08.2014 03:50 12,8 C 11,7 C 98 % 1016,7 hPa 0,0 l/m 0 min 0 min 0,0 UV-I 0 W/m 17,7 km/h (3 Bft)
16.08.2014 03:52 12,8 C 11,7 C 98 % 1016,7 hPa 0,0 l/m 0 min 0 min 0,0 UV-I 0 W/m 21,3 km/h (4 Bft)
16.08.2014 03:54 12,8 C 11,7 C 98 % 1016,7 hPa 0,0 l/m 0 min 0 min 0,0 UV-I 0 W/m 21,3 km/h (4 Bft)
16.08.2014 03:56 12,8 C 11,7 C 98 % 1016,7 hPa 0,0 l/m 0 min 0 min 0,0 UV-I 0 W/m 17,7 km/h (3 Bft)
16.08.2014 03:58 12,8 C 11,7 C 98 % 1016,7 hPa 0,0 l/m 0 min 0 min 0,0 UV-I 0 W/m 17,7 km/h (3 Bft)
16.08.2014 04:00 12,8 C 11,7 C 98 % 1016,8 hPa 0,0 l/m 0 min 0 min 0,0 UV-I 0 W/m 24,7 km/h (4 Bft)
16.08.2014 04:02 12,8 C 11,7 C 98 % 1016,7 hPa 0,0 l/m 0 min 0 min 0,0 UV-I 0 W/m 24,7 km/h (4 Bft)
16.08.2014 04:04 12,8 C 11,7 C 98 % 1016,8 hPa 0,0 l/m 0 min 0 min 0,0 UV-I 0 W/m 28,2 km/h (4 Bft)
16.08.2014 04:06 12,8 C 11,7 C 98 % 1016,8 hPa 0,0 l/m 0 min 0 min 0,0 UV-I 0 W/m 17,7 km/h (3 Bft)
16.08.2014 04:08 12,8 C 11,7 C 98 % 1016,8 hPa 0,0 l/m 0 min 0 min 0,0 UV-I 0 W/m 28,2 km/h (4 Bft)
16.08.2014 04:10 12,8 C 11,7 C 98 % 1016,8 hPa 0,0 l/m 0 min 0 min 0,0 UV-I 0 W/m 24,7 km/h (4 Bft)
16.08.2014 04:12 12,8 C 11,7 C 98 % 1016,7 hPa 0,0 l/m 0 min 0 min 0,0 UV-I 0 W/m 21,3 km/h (4 Bft)
16.08.2014 04:14 12,8 C 11,7 C 98 % 1016,7 hPa 0,0 l/m 0 min 0 min 0,0 UV-I 0 W/m 17,7 km/h (3 Bft)
16.08.2014 04:16 12,7 C 11,7 C 98 % 1016,7 hPa 0,0 l/m 0 min 0 min 0,0 UV-I 0 W/m 31,7 km/h (5 Bft)
16.08.2014 04:18 12,7 C 11,7 C 98 % 1016,7 hPa 0,0 l/m 0 min 0 min 0,0 UV-I 0 W/m 31,7 km/h (5 Bft)
16.08.2014 04:20 12,7 C 11,7 C 98 % 1016,7 hPa 0,0 l/m 0 min 0 min 0,0 UV-I 0 W/m 14,2 km/h (3 Bft)
16.08.2014 04:22 12,7 C 11,7 C 98 % 1016,7 hPa 0,0 l/m 0 min 0 min 0,0 UV-I 0 W/m 17,7 km/h (3 Bft)
16.08.2014 04:24 12,6 C 11,7 C 98 % 1016,7 hPa 0,0 l/m 0 min 0 min 0,0 UV-I 0 W/m 17,7 km/h (3 Bft)
16.08.2014 04:26 12,6 C 11,7 C 98 % 1016,7 hPa 0,0 l/m 0 min 0 min 0,0 UV-I 0 W/m 17,7 km/h (3 Bft)
16.08.2014 04:28 12,6 C 11,7 C 98 % 1016,7 hPa 0,0 l/m 0 min 0 min 0,0 UV-I 0 W/m 21,3 km/h (4 Bft)
16.08.2014 04:30 12,6 C 11,7 C 98 % 1016,7 hPa 0,0 l/m 0 min 0 min 0,0 UV-I 0 W/m 28,2 km/h (4 Bft)
16.08.2014 04:32 12,6 C 11,7 C 98 % 1016,7 hPa 0,0 l/m 0 min 0 min 0,0 UV-I 0 W/m 21,3 km/h (4 Bft)
16.08.2014 04:34 12,6 C 11,7 C 98 % 1016,7 hPa 0,0 l/m 0 min 0 min 0,0 UV-I 0 W/m 28,2 km/h (4 Bft)
16.08.2014 04:36 12,6 C 11,7 C 98 % 1016,7 hPa 0,0 l/m 0 min 0 min 0,0 UV-I 0 W/m 28,2 km/h (4 Bft)
16.08.2014 04:38 12,6 C 11,7 C 98 % 1016,7 hPa 0,0 l/m 0 min 0 min 0,0 UV-I 0 W/m 28,2 km/h (4 Bft)
16.08.2014 04:40 12,6 C 11,7 C 98 % 1016,7 hPa 0,0 l/m 0 min 0 min 0,0 UV-I 0 W/m 24,7 km/h (4 Bft)
16.08.2014 04:42 12,6 C 11,7 C 98 % 1016,7 hPa 0,0 l/m 0 min 0 min 0,0 UV-I 0 W/m 28,2 km/h (4 Bft)
16.08.2014 04:44 12,6 C 11,7 C 98 % 1016,7 hPa 0,0 l/m 0 min 0 min 0,0 UV-I 0 W/m 21,3 km/h (4 Bft)
16.08.2014 04:46 12,6 C 11,7 C 98 % 1016,7 hPa 0,0 l/m 0 min 0 min 0,0 UV-I 0 W/m 28,2 km/h (4 Bft)
16.08.2014 04:48 12,7 C 11,7 C 98 % 1016,7 hPa 0,0 l/m 0 min 0 min 0,0 UV-I 0 W/m 24,7 km/h (4 Bft)
16.08.2014 04:50 12,7 C 11,7 C 98 % 1016,7 hPa 0,0 l/m 0 min 0 min 0,0 UV-I 0 W/m 21,3 km/h (4 Bft)
16.08.2014 04:52 12,7 C 11,7 C 98 % 1016,7 hPa 0,0 l/m 0 min 0 min 0,0 UV-I 0 W/m 35,4 km/h (5 Bft)
16.08.2014 04:54 12,6 C 11,7 C 98 % 1016,7 hPa 0,0 l/m 0 min 0 min 0,0 UV-I 0 W/m 24,7 km/h (4 Bft)
16.08.2014 04:56 12,6 C 11,7 C 98 % 1016,7 hPa 0,0 l/m 0 min 0 min 0,0 UV-I 0 W/m 24,7 km/h (4 Bft)
16.08.2014 04:58 12,6 C 11,7 C 98 % 1016,7 hPa 0,0 l/m 0 min 0 min 0,0 UV-I 0 W/m 21,3 km/h (4 Bft)
16.08.2014 05:00 12,6 C 11,7 C 98 % 1016,7 hPa 0,0 l/m 0 min 0 min 0,0 UV-I 0 W/m 14,2 km/h (3 Bft)
16.08.2014 05:02 12,6 C 11,7 C 98 % 1016,7 hPa 0,0 l/m 0 min 0 min 0,0 UV-I 0 W/m 28,2 km/h (4 Bft)
16.08.2014 05:04 12,6 C 11,7 C 98 % 1016,7 hPa 0,0 l/m 0 min 0 min 0,0 UV-I 0 W/m 14,2 km/h (3 Bft)
16.08.2014 05:06 12,6 C 11,7 C 98 % 1016,7 hPa 0,0 l/m 0 min 0 min 0,0 UV-I 0 W/m 24,7 km/h (4 Bft)
16.08.2014 05:08 12,6 C 11,7 C 98 % 1016,8 hPa 0,0 l/m 0 min 0 min 0,0 UV-I 0 W/m 21,3 km/h (4 Bft)
16.08.2014 05:10 12,6 C 11,7 C 98 % 1016,8 hPa 0,0 l/m 0 min 0 min 0,0 UV-I 0 W/m 21,3 km/h (4 Bft)
16.08.2014 05:12 12,6 C 11,7 C 98 % 1016,8 hPa 0,0 l/m 0 min 0 min 0,0 UV-I 0 W/m 24,7 km/h (4 Bft)
16.08.2014 05:14 12,6 C 11,7 C 98 % 1016,8 hPa 0,0 l/m 0 min 0 min 0,0 UV-I 0 W/m 24,7 km/h (4 Bft)
16.08.2014 05:16 12,6 C 11,7 C 98 % 1016,8 hPa 0,0 l/m 0 min 0 min 0,0 UV-I 0 W/m 28,2 km/h (4 Bft)
16.08.2014 05:18 12,6 C 11,7 C 98 % 1016,8 hPa 0,0 l/m 0 min 0 min 0,0 UV-I 0 W/m 24,7 km/h (4 Bft)
16.08.2014 05:20 12,6 C 11,7 C 98 % 1016,7 hPa 0,0 l/m 0 min 0 min 0,0 UV-I 0 W/m 28,2 km/h (4 Bft)
16.08.2014 05:22 12,6 C 11,7 C 98 % 1016,7 hPa 0,0 l/m 0 min 0 min 0,0 UV-I 0 W/m 17,7 km/h (3 Bft)
16.08.2014 05:24 12,6 C 11,7 C 98 % 1016,8 hPa 0,0 l/m 0 min 2 min 0,0 UV-I 0 W/m 21,3 km/h (4 Bft)
16.08.2014 05:26 12,6 C 11,7 C 98 % 1016,8 hPa 0,0 l/m 0 min 0 min 0,0 UV-I 0 W/m 17,7 km/h (3 Bft)
16.08.2014 05:28 12,7 C 11,7 C 98 % 1016,8 hPa 0,0 l/m 0 min 0 min 0,0 UV-I 0 W/m 24,7 km/h (4 Bft)
16.08.2014 05:30 12,7 C 11,7 C 98 % 1016,8 hPa 0,0 l/m 0 min 0 min 0,0 UV-I 0 W/m 21,3 km/h (4 Bft)
16.08.2014 05:32 12,7 C 11,7 C 98 % 1016,8 hPa 0,0 l/m 0 min 0 min 0,0 UV-I 0 W/m 28,2 km/h (4 Bft)
16.08.2014 05:34 12,7 C 11,7 C 98 % 1016,9 hPa 0,0 l/m 0 min 0 min 0,0 UV-I 0 W/m 31,7 km/h (5 Bft)
16.08.2014 05:36 12,7 C 11,7 C 98 % 1016,9 hPa 0,0 l/m 0 min 0 min 0,0 UV-I 0 W/m 24,7 km/h (4 Bft)
16.08.2014 05:38 12,7 C 11,7 C 98 % 1016,9 hPa 0,0 l/m 0 min 0 min 0,0 UV-I 0 W/m 21,3 km/h (4 Bft)
16.08.2014 05:40 12,7 C 11,7 C 98 % 1016,9 hPa 0,0 l/m 0 min 0 min 0,0 UV-I 0 W/m 17,7 km/h (3 Bft)
16.08.2014 05:42 12,7 C 11,7 C 98 % 1016,9 hPa 0,0 l/m 0 min 0 min 0,0 UV-I 0 W/m 21,3 km/h (4 Bft)
16.08.2014 05:44 12,7 C 11,7 C 98 % 1016,9 hPa 0,0 l/m 0 min 0 min 0,0 UV-I 0 W/m 17,7 km/h (3 Bft)
16.08.2014 05:46 12,7 C 11,7 C 98 % 1016,9 hPa 0,0 l/m 0 min 0 min 0,0 UV-I 0 W/m 24,7 km/h (4 Bft)
16.08.2014 05:48 12,7 C 11,7 C 98 % 1016,9 hPa 0,0 l/m 0 min 0 min 0,0 UV-I 0 W/m 17,7 km/h (3 Bft)
16.08.2014 05:50 12,7 C 11,7 C 98 % 1016,8 hPa 0,0 l/m 0 min 0 min 0,0 UV-I 0 W/m 24,7 km/h (4 Bft)
16.08.2014 05:52 12,7 C 11,7 C 98 % 1016,9 hPa 0,0 l/m 0 min 0 min 0,0 UV-I 0 W/m 21,3 km/h (4 Bft)
16.08.2014 05:54 12,7 C 11,7 C 98 % 1016,9 hPa 0,0 l/m 0 min 0 min 0,0 UV-I 0 W/m 17,7 km/h (3 Bft)
16.08.2014 05:56 12,7 C 11,7 C 98 % 1016,9 hPa 0,0 l/m 0 min 0 min 0,0 UV-I 0 W/m 28,2 km/h (4 Bft)
16.08.2014 05:58 12,6 C 11,7 C 98 % 1016,9 hPa 0,0 l/m 0 min 0 min 0,0 UV-I 0 W/m 21,3 km/h (4 Bft)
16.08.2014 06:00 12,6 C 11,7 C 98 % 1017,0 hPa 0,0 l/m 0 min 0 min 0,0 UV-I 0 W/m 17,7 km/h (3 Bft)
16.08.2014 06:02 12,6 C 11,7 C 98 % 1017,0 hPa 0,0 l/m 0 min 0 min 0,0 UV-I 0 W/m 14,2 km/h (3 Bft)
16.08.2014 06:06 12,5 C 11,1 C 98 % 1017,1 hPa 0,0 l/m 0 min 0 min 0,0 UV-I 0 W/m 21,3 km/h (4 Bft)
16.08.2014 06:08 12,5 C 11,7 C 98 % 1017,1 hPa 0,0 l/m 0 min 0 min 0,0 UV-I 0 W/m 14,2 km/h (3 Bft)
16.08.2014 06:10 12,5 C 11,1 C 98 % 1017,0 hPa 0,0 l/m 0 min 0 min 0,0 UV-I 0 W/m 14,2 km/h (3 Bft)
16.08.2014 06:12 12,5 C 11,1 C 98 % 1017,1 hPa 0,0 l/m 0 min 0 min 0,0 UV-I 0 W/m 17,7 km/h (3 Bft)
16.08.2014 06:14 12,4 C 11,1 C 98 % 1017,0 hPa 0,0 l/m 0 min 0 min 0,0 UV-I 0 W/m 14,2 km/h (3 Bft)
16.08.2014 06:16 12,4 C 11,1 C 98 % 1017,1 hPa 0,0 l/m 0 min 0 min 0,0 UV-I 0 W/m 14,2 km/h (3 Bft)
16.08.2014 06:18 12,4 C 11,1 C 98 % 1017,1 hPa 0,0 l/m 0 min 0 min 0,0 UV-I 0 W/m 21,3 km/h (4 Bft)
16.08.2014 06:20 12,4 C 11,1 C 98 % 1017,0 hPa 0,0 l/m 0 min 0 min 0,0 UV-I 0 W/m 17,7 km/h (3 Bft)
16.08.2014 06:22 12,4 C 11,1 C 98 % 1017,0 hPa 0,0 l/m 0 min 0 min 0,0 UV-I 0 W/m 21,3 km/h (4 Bft)
16.08.2014 06:24 12,3 C 11,1 C 98 % 1017,0 hPa 0,0 l/m 0 min 0 min 0,0 UV-I 0 W/m 14,2 km/h (3 Bft)
16.08.2014 06:26 12,3 C 11,1 C 98 % 1017,1 hPa 0,0 l/m 0 min 0 min 0,0 UV-I 0 W/m 17,7 km/h (3 Bft)
16.08.2014 06:28 12,3 C 11,1 C 98 % 1017,1 hPa 0,0 l/m 0 min 0 min 0,0 UV-I 5 W/m 21,3 km/h (4 Bft)
16.08.2014 06:30 12,3 C 11,1 C 98 % 1017,1 hPa 0,0 l/m 0 min 0 min 0,0 UV-I 7 W/m 17,7 km/h (3 Bft)
16.08.2014 06:32 12,2 C 11,1 C 98 % 1017,1 hPa 0,0 l/m 0 min 0 min 0,0 UV-I 7 W/m 21,3 km/h (4 Bft)
16.08.2014 06:34 12,2 C 11,1 C 98 % 1017,1 hPa 0,0 l/m 0 min 0 min 0,0 UV-I 8 W/m 17,7 km/h (3 Bft)
16.08.2014 06:36 12,2 C 11,1 C 98 % 1017,1 hPa 0,0 l/m 0 min 0 min 0,0 UV-I 10 W/m 17,7 km/h (3 Bft)
16.08.2014 06:38 12,2 C 11,1 C 98 % 1017,1 hPa 0,0 l/m 0 min 0 min 0,0 UV-I 11 W/m 0,0 km/h (0 Bft)
16.08.2014 06:40 12,1 C 11,1 C 98 % 1017,1 hPa 0,0 l/m 0 min 0 min 0,0 UV-I 12 W/m 14,2 km/h (3 Bft)
16.08.2014 06:42 12,1 C 11,1 C 98 % 1017,2 hPa 0,0 l/m 0 min 0 min 0,0 UV-I 14 W/m 17,7 km/h (3 Bft)
16.08.2014 06:44 12,1 C 11,1 C 98 % 1017,1 hPa 0,0 l/m 0 min 0 min 0,0 UV-I 17 W/m 0,0 km/h (0 Bft)
16.08.2014 06:46 12,1 C 11,1 C 98 % 1017,2 hPa 0,0 l/m 0 min 0 min 0,0 UV-I 22 W/m 0,0 km/h (0 Bft)
16.08.2014 06:48 12,1 C 11,1 C 98 % 1017,2 hPa 0,0 l/m 0 min 0 min 0,0 UV-I 24 W/m 14,2 km/h (3 Bft)
16.08.2014 06:50 12,1 C 11,1 C 98 % 1017,2 hPa 0,0 l/m 0 min 0 min 0,0 UV-I 26 W/m 7,1 km/h (2 Bft)
16.08.2014 06:52 12,1 C 11,1 C 98 % 1017,2 hPa 0,0 l/m 0 min 0 min 0,0 UV-I 26 W/m 7,1 km/h (2 Bft)
16.08.2014 06:54 12,1 C 11,1 C 98 % 1017,2 hPa 0,0 l/m 2 min 0 min 0,0 UV-I 37 W/m 7,1 km/h (2 Bft)
16.08.2014 06:56 12,1 C 11,1 C 98 % 1017,2 hPa 0,0 l/m 2 min 0 min 0,0 UV-I 45 W/m 14,2 km/h (3 Bft)
16.08.2014 06:58 12,1 C 11,1 C 98 % 1017,2 hPa 0,0 l/m 2 min 0 min 0,0 UV-I 50 W/m 10,7 km/h (2 Bft)
16.08.2014 07:00 12,1 C 11,1 C 98 % 1017,2 hPa 0,0 l/m 2 min 0 min 0,0 UV-I 64 W/m 21,3 km/h (4 Bft)
16.08.2014 07:02 12,2 C 11,1 C 98 % 1017,2 hPa 0,0 l/m 2 min 0 min 0,0 UV-I 75 W/m 17,7 km/h (3 Bft)
16.08.2014 07:04 12,2 C 11,7 C 98 % 1017,3 hPa 0,0 l/m 2 min 0 min 0,0 UV-I 81 W/m 21,3 km/h (4 Bft)
16.08.2014 07:06 12,3 C 11,7 C 98 % 1017,3 hPa 0,0 l/m 2 min 0 min 0,0 UV-I 83 W/m 21,3 km/h (4 Bft)
16.08.2014 07:08 12,3 C 11,7 C 98 % 1017,2 hPa 0,0 l/m 2 min 0 min 0,0 UV-I 82 W/m 24,7 km/h (4 Bft)
16.08.2014 07:10 12,3 C 11,7 C 98 % 1017,3 hPa 0,2 l/m 2 min 0 min 0,0 UV-I 73 W/m 21,3 km/h (4 Bft)
16.08.2014 07:12 12,4 C 11,7 C 98 % 1017,3 hPa 0,0 l/m 2 min 0 min 0,0 UV-I 93 W/m 21,3 km/h (4 Bft)
16.08.2014 07:14 12,4 C 11,7 C 98 % 1017,3 hPa 0,0 l/m 2 min 0 min 0,0 UV-I 70 W/m 17,7 km/h (3 Bft)
16.08.2014 07:16 12,4 C 11,7 C 98 % 1017,3 hPa 0,0 l/m 0 min 0 min 0,0 UV-I 60 W/m 21,3 km/h (4 Bft)
16.08.2014 07:18 12,5 C 11,7 C 98 % 1017,3 hPa 0,0 l/m 2 min 0 min 0,0 UV-I 90 W/m 21,3 km/h (4 Bft)
16.08.2014 07:20 12,5 C 11,7 C 98 % 1017,4 hPa 0,0 l/m 2 min 0 min 0,0 UV-I 78 W/m 14,2 km/h (3 Bft)
16.08.2014 07:22 12,6 C 11,7 C 98 % 1017,4 hPa 0,0 l/m 2 min 0 min 0,0 UV-I 69 W/m 17,7 km/h (3 Bft)
16.08.2014 07:24 12,6 C 11,7 C 98 % 1017,4 hPa 0,0 l/m 0 min 0 min 0,0 UV-I 66 W/m 17,7 km/h (3 Bft)
16.08.2014 07:26 12,6 C 11,7 C 98 % 1017,4 hPa 0,0 l/m 0 min 0 min 0,0 UV-I 67 W/m 21,3 km/h (4 Bft)
16.08.2014 07:28 12,7 C 11,7 C 98 % 1017,4 hPa 0,0 l/m 0 min 0 min 0,0 UV-I 65 W/m 17,7 km/h (3 Bft)
16.08.2014 07:30 12,7 C 11,7 C 98 % 1017,4 hPa 0,0 l/m 0 min 0 min 0,0 UV-I 63 W/m 17,7 km/h (3 Bft)
16.08.2014 07:32 12,7 C 11,7 C 98 % 1017,5 hPa 0,0 l/m 0 min 0 min 0,0 UV-I 59 W/m 14,2 km/h (3 Bft)
16.08.2014 07:34 12,8 C 12,2 C 99 % 1017,5 hPa 0,0 l/m 0 min 0 min 0,0 UV-I 56 W/m 14,2 km/h (3 Bft)
16.08.2014 07:36 12,8 C 12,2 C 99 % 1017,5 hPa 0,0 l/m 0 min 0 min 0,0 UV-I 56 W/m 14,2 km/h (3 Bft)
16.08.2014 07:38 12,8 C 12,2 C 99 % 1017,5 hPa 0,0 l/m 0 min 0 min 0,0 UV-I 52 W/m 0,0 km/h (0 Bft)
16.08.2014 07:40 12,9 C 12,2 C 99 % 1017,5 hPa 0,0 l/m 0 min 0 min 0,0 UV-I 47 W/m 10,7 km/h (2 Bft)
16.08.2014 07:42 12,9 C 12,2 C 99 % 1017,5 hPa 0,0 l/m 0 min 0 min 0,0 UV-I 46 W/m 17,7 km/h (3 Bft)
16.08.2014 07:44 12,9 C 12,2 C 99 % 1017,5 hPa 0,0 l/m 0 min 0 min 0,0 UV-I 44 W/m 14,2 km/h (3 Bft)
16.08.2014 07:46 12,9 C 12,2 C 99 % 1017,6 hPa 0,0 l/m 0 min 0 min 0,0 UV-I 41 W/m 21,3 km/h (4 Bft)
16.08.2014 07:48 13,0 C 12,2 C 99 % 1017,6 hPa 0,0 l/m 0 min 0 min 0,0 UV-I 41 W/m 3,5 km/h (1 Bft)
16.08.2014 07:50 13,0 C 12,2 C 99 % 1017,6 hPa 0,0 l/m 0 min 0 min 0,0 UV-I 46 W/m 10,7 km/h (2 Bft)
16.08.2014 07:52 13,1 C 12,2 C 99 % 1017,7 hPa 0,0 l/m 0 min 0 min 0,0 UV-I 50 W/m 7,1 km/h (2 Bft)
16.08.2014 07:54 13,1 C 12,2 C 99 % 1017,7 hPa 0,0 l/m 0 min 0 min 0,0 UV-I 55 W/m 0,0 km/h (0 Bft)
16.08.2014 07:56 13,2 C 12,2 C 99 % 1017,7 hPa 0,0 l/m 0 min 0 min 0,0 UV-I 61 W/m 17,7 km/h (3 Bft)
16.08.2014 07:58 13,2 C 12,2 C 99 % 1017,7 hPa 0,0 l/m 0 min 0 min 0,0 UV-I 63 W/m 14,2 km/h (3 Bft)
16.08.2014 08:00 13,2 C 12,2 C 99 % 1017,7 hPa 0,0 l/m 0 min 0 min 0,0 UV-I 67 W/m 17,7 km/h (3 Bft)
16.08.2014 08:02 13,3 C 12,2 C 99 % 1017,7 hPa 0,0 l/m 0 min 0 min 0,0 UV-I 72 W/m 17,7 km/h (3 Bft)
16.08.2014 08:04 13,3 C 12,2 C 99 % 1017,7 hPa 0,0 l/m 0 min 0 min 0,0 UV-I 79 W/m 21,3 km/h (4 Bft)
16.08.2014 08:06 13,3 C 12,2 C 99 % 1017,7 hPa 0,0 l/m 0 min 0 min 0,0 UV-I 82 W/m 14,2 km/h (3 Bft)
16.08.2014 08:08 13,4 C 12,8 C 99 % 1017,8 hPa 0,0 l/m 0 min 0 min 0,0 UV-I 81 W/m 24,7 km/h (4 Bft)
16.08.2014 08:10 13,4 C 12,8 C 99 % 1017,8 hPa 0,0 l/m 0 min 0 min 0,0 UV-I 78 W/m 24,7 km/h (4 Bft)
16.08.2014 08:12 13,4 C 12,8 C 99 % 1017,8 hPa 0,0 l/m 0 min 0 min 0,0 UV-I 77 W/m 24,7 km/h (4 Bft)
16.08.2014 08:14 13,5 C 12,8 C 99 % 1017,8 hPa 0,0 l/m 0 min 0 min 0,0 UV-I 82 W/m 17,7 km/h (3 Bft)
16.08.2014 08:16 13,5 C 12,8 C 99 % 1017,8 hPa 0,0 l/m 0 min 0 min 0,0 UV-I 85 W/m 31,7 km/h (5 Bft)
16.08.2014 08:18 13,6 C 12,8 C 99 % 1017,8 hPa 0,0 l/m 0 min 0 min 0,0 UV-I 81 W/m 21,3 km/h (4 Bft)
16.08.2014 08:20 13,6 C 12,8 C 99 % 1017,9 hPa 0,0 l/m 0 min 0 min 0,0 UV-I 77 W/m 14,2 km/h (3 Bft)
16.08.2014 08:22 13,7 C 12,8 C 99 % 1017,9 hPa 0,0 l/m 0 min 0 min 0,0 UV-I 74 W/m 21,3 km/h (4 Bft)
16.08.2014 08:24 13,6 C 12,8 C 99 % 1017,9 hPa 0,0 l/m 0 min 0 min 0,0 UV-I 65 W/m 24,7 km/h (4 Bft)
16.08.2014 08:26 13,6 C 12,8 C 99 % 1017,9 hPa 0,0 l/m 0 min 0 min 0,0 UV-I 56 W/m 17,7 km/h (3 Bft)
16.08.2014 08:28 13,7 C 12,8 C 99 % 1017,9 hPa 0,0 l/m 0 min 0 min 0,0 UV-I 49 W/m 28,2 km/h (4 Bft)
16.08.2014 08:30 13,7 C 12,8 C 99 % 1017,9 hPa 0,0 l/m 0 min 0 min 0,0 UV-I 45 W/m 28,2 km/h (4 Bft)
16.08.2014 08:32 13,7 C 12,8 C 99 % 1017,9 hPa 0,0 l/m 0 min 0 min 0,0 UV-I 50 W/m 21,3 km/h (4 Bft)
16.08.2014 08:34 13,7 C 12,8 C 98 % 1017,9 hPa 0,0 l/m 0 min 0 min 0,0 UV-I 70 W/m 24,7 km/h (4 Bft)
16.08.2014 08:36 13,7 C 12,8 C 98 % 1018,0 hPa 0,0 l/m 0 min 0 min 0,0 UV-I 77 W/m 21,3 km/h (4 Bft)
16.08.2014 08:38 13,7 C 12,8 C 98 % 1018,0 hPa 0,0 l/m 0 min 0 min 0,0 UV-I 80 W/m 17,7 km/h (3 Bft)
16.08.2014 08:40 13,7 C 12,8 C 98 % 1018,0 hPa 0,0 l/m 0 min 0 min 0,0 UV-I 86 W/m 28,2 km/h (4 Bft)
16.08.2014 08:42 13,8 C 12,8 C 98 % 1018,0 hPa 0,0 l/m 0 min 0 min 0,0 UV-I 86 W/m 21,3 km/h (4 Bft)
16.08.2014 08:44 13,8 C 12,8 C 98 % 1018,1 hPa 0,0 l/m 0 min 0 min 0,0 UV-I 81 W/m 31,7 km/h (5 Bft)
16.08.2014 08:46 13,9 C 12,8 C 98 % 1018,1 hPa 0,0 l/m 0 min 0 min 0,0 UV-I 88 W/m 17,7 km/h (3 Bft)
16.08.2014 08:48 13,9 C 12,8 C 98 % 1018,2 hPa 0,0 l/m 0 min 0 min 0,0 UV-I 95 W/m 21,3 km/h (4 Bft)
16.08.2014 08:50 13,9 C 12,8 C 98 % 1018,2 hPa 0,0 l/m 0 min 0 min 0,0 UV-I 77 W/m 28,2 km/h (4 Bft)
16.08.2014 08:52 13,9 C 12,8 C 98 % 1018,2 hPa 0,0 l/m 0 min 2 min 0,0 UV-I 52 W/m 21,3 km/h (4 Bft)
16.08.2014 08:54 14,0 C 12,8 C 98 % 1018,2 hPa 0,4 l/m 0 min 2 min 0,0 UV-I 41 W/m 17,7 km/h (3 Bft)
16.08.2014 08:56 14,0 C 12,8 C 98 % 1018,2 hPa 0,2 l/m 0 min 2 min 0,0 UV-I 41 W/m 21,3 km/h (4 Bft)
16.08.2014 08:58 14,0 C 12,8 C 98 % 1018,3 hPa 0,0 l/m 0 min 2 min 0,0 UV-I 35 W/m 17,7 km/h (3 Bft)
16.08.2014 09:00 13,9 C 12,8 C 98 % 1018,3 hPa 0,0 l/m 0 min 2 min 0,0 UV-I 32 W/m 24,7 km/h (4 Bft)
16.08.2014 09:02 13,9 C 12,8 C 98 % 1018,3 hPa 0,0 l/m 0 min 2 min 0,0 UV-I 35 W/m 21,3 km/h (4 Bft)
16.08.2014 09:04 13,9 C 12,8 C 98 % 1018,4 hPa 0,0 l/m 0 min 0 min 0,0 UV-I 37 W/m 17,7 km/h (3 Bft)
16.08.2014 09:06 13,8 C 12,8 C 98 % 1018,4 hPa 0,0 l/m 0 min 0 min 0,0 UV-I 38 W/m 10,7 km/h (2 Bft)
16.08.2014 09:08 13,9 C 12,8 C 98 % 1018,4 hPa 0,0 l/m 0 min 0 min 0,0 UV-I 52 W/m 21,3 km/h (4 Bft)
16.08.2014 09:10 13,9 C 12,8 C 98 % 1018,4 hPa 0,0 l/m 0 min 0 min 0,0 UV-I 80 W/m 17,7 km/h (3 Bft)
16.08.2014 09:12 13,9 C 12,8 C 98 % 1018,4 hPa 0,0 l/m 0 min 0 min 0,0 UV-I 105 W/m 24,7 km/h (4 Bft)
16.08.2014 09:14 14,0 C 13,3 C 98 % 1018,6 hPa 0,0 l/m 0 min 0 min 0,0 UV-I 132 W/m 31,7 km/h (5 Bft)
16.08.2014 09:16 14,2 C 13,3 C 98 % 1018,5 hPa 0,0 l/m 0 min 0 min 0,0 UV-I 139 W/m 17,7 km/h (3 Bft)
16.08.2014 09:18 14,2 C 13,3 C 98 % 1018,5 hPa 0,0 l/m 0 min 0 min 0,0 UV-I 149 W/m 24,7 km/h (4 Bft)
16.08.2014 09:20 14,2 C 13,3 C 98 % 1018,5 hPa 0,0 l/m 0 min 0 min 0,0 UV-I 168 W/m 21,3 km/h (4 Bft)
16.08.2014 09:22 14,2 C 13,9 C 98 % 1018,5 hPa 0,0 l/m 0 min 0 min 0,0 UV-I 189 W/m 28,2 km/h (4 Bft)
16.08.2014 09:24 14,2 C 13,9 C 98 % 1018,5 hPa 0,0 l/m 0 min 0 min 0,0 UV-I 199 W/m 21,3 km/h (4 Bft)
16.08.2014 09:26 14,2 C 13,9 C 98 % 1018,6 hPa 0,0 l/m 0 min 0 min 0,0 UV-I 196 W/m 28,2 km/h (4 Bft)
16.08.2014 09:28 14,3 C 13,9 C 98 % 1018,6 hPa 0,0 l/m 0 min 0 min 0,0 UV-I 169 W/m 24,7 km/h (4 Bft)
16.08.2014 09:30 14,4 C 13,9 C 98 % 1018,6 hPa 0,0 l/m 0 min 0 min 0,0 UV-I 150 W/m 21,3 km/h (4 Bft)
16.08.2014 09:32 14,4 C 13,9 C 98 % 1018,6 hPa 0,0 l/m 0 min 0 min 0,0 UV-I 137 W/m 24,7 km/h (4 Bft)
16.08.2014 09:34 14,4 C 13,9 C 98 % 1018,6 hPa 0,0 l/m 0 min 0 min 0,0 UV-I 131 W/m 17,7 km/h (3 Bft)
16.08.2014 09:36 14,4 C 13,9 C 98 % 1018,6 hPa 0,0 l/m 0 min 0 min 0,0 UV-I 131 W/m 21,3 km/h (4 Bft)
16.08.2014 09:38 14,4 C 13,3 C 98 % 1018,6 hPa 0,0 l/m 0 min 0 min 0,0 UV-I 127 W/m 35,4 km/h (5 Bft)
16.08.2014 09:40 14,4 C 13,9 C 98 % 1018,7 hPa 0,0 l/m 0 min 0 min 0,0 UV-I 152 W/m 17,7 km/h (3 Bft)
16.08.2014 09:42 14,5 C 13,9 C 98 % 1018,7 hPa 0,0 l/m 0 min 0 min 0,0 UV-I 163 W/m 14,2 km/h (3 Bft)
16.08.2014 09:44 14,6 C 13,9 C 98 % 1018,7 hPa 0,0 l/m 0 min 0 min 0,2 UV-I 179 W/m 21,3 km/h (4 Bft)
16.08.2014 09:46 14,7 C 13,9 C 98 % 1018,7 hPa 0,0 l/m 0 min 0 min 0,5 UV-I 213 W/m 17,7 km/h (3 Bft)
16.08.2014 09:48 14,7 C 13,9 C 98 % 1018,7 hPa 0,0 l/m 0 min 0 min 0,6 UV-I 240 W/m 21,3 km/h (4 Bft)
16.08.2014 09:50 14,8 C 14,4 C 98 % 1018,7 hPa 0,0 l/m 2 min 0 min 0,7 UV-I 270 W/m 31,7 km/h (5 Bft)
16.08.2014 09:52 14,9 C 14,4 C 98 % 1018,7 hPa 0,0 l/m 2 min 0 min 0,7 UV-I 280 W/m 31,7 km/h (5 Bft)
16.08.2014 09:54 15,0 C 14,4 C 98 % 1018,7 hPa 0,0 l/m 2 min 0 min 0,7 UV-I 280 W/m 28,2 km/h (4 Bft)
16.08.2014 09:56 15,1 C 14,4 C 98 % 1018,7 hPa 0,0 l/m 0 min 0 min 0,7 UV-I 253 W/m 28,2 km/h (4 Bft)
16.08.2014 09:58 15,1 C 14,4 C 98 % 1018,7 hPa 0,0 l/m 0 min 0 min 0,6 UV-I 237 W/m 28,2 km/h (4 Bft)
16.08.2014 10:00 15,2 C 14,4 C 98 % 1018,7 hPa 0,0 l/m 0 min 0 min 0,6 UV-I 228 W/m 17,7 km/h (3 Bft)
16.08.2014 10:02 15,3 C 14,4 C 98 % 1018,8 hPa 0,0 l/m 0 min 0 min 0,7 UV-I 226 W/m 10,7 km/h (2 Bft)
16.08.2014 10:04 15,3 C 14,4 C 98 % 1018,8 hPa 0,0 l/m 0 min 0 min 0,7 UV-I 215 W/m 21,3 km/h (4 Bft)
16.08.2014 10:06 15,3 C 14,4 C 97 % 1018,8 hPa 0,0 l/m 0 min 0 min 0,7 UV-I 205 W/m 28,2 km/h (4 Bft)
16.08.2014 10:08 15,3 C 14,4 C 97 % 1018,8 hPa 0,0 l/m 0 min 0 min 0,8 UV-I 227 W/m 28,2 km/h (4 Bft)
16.08.2014 10:10 15,3 C 14,4 C 97 % 1018,9 hPa 0,0 l/m 2 min 0 min 0,9 UV-I 278 W/m 24,7 km/h (4 Bft)
16.08.2014 10:12 15,4 C 15,0 C 97 % 1018,9 hPa 0,0 l/m 2 min 0 min 1,1 UV-I 349 W/m 17,7 km/h (3 Bft)
16.08.2014 10:14 15,5 C 15,0 C 97 % 1018,8 hPa 0,0 l/m 2 min 0 min 0,9 UV-I 284 W/m 28,2 km/h (4 Bft)
16.08.2014 10:16 15,6 C 15,0 C 97 % 1018,9 hPa 0,0 l/m 0 min 0 min 0,9 UV-I 258 W/m 24,7 km/h (4 Bft)
16.08.2014 10:18 15,7 C 15,0 C 96 % 1018,9 hPa 0,0 l/m 2 min 0 min 0,9 UV-I 283 W/m 28,2 km/h (4 Bft)
16.08.2014 10:20 15,7 C 15,0 C 96 % 1018,8 hPa 0,0 l/m 0 min 0 min 0,8 UV-I 248 W/m 28,2 km/h (4 Bft)
16.08.2014 10:22 15,7 C 14,4 C 96 % 1018,9 hPa 0,0 l/m 0 min 0 min 0,7 UV-I 189 W/m 31,7 km/h (5 Bft)
16.08.2014 10:24 15,7 C 14,4 C 96 % 1018,9 hPa 0,0 l/m 0 min 0 min 0,9 UV-I 167 W/m 28,2 km/h (4 Bft)
16.08.2014 10:26 15,5 C 14,4 C 95 % 1019,0 hPa 0,0 l/m 0 min 0 min 1,0 UV-I 209 W/m 24,7 km/h (4 Bft)
16.08.2014 10:28 15,4 C 14,4 C 95 % 1019,0 hPa 0,0 l/m 0 min 0 min 1,1 UV-I 222 W/m 28,2 km/h (4 Bft)
16.08.2014 10:30 15,4 C 14,4 C 95 % 1019,0 hPa 0,0 l/m 0 min 0 min 1,3 UV-I 278 W/m 17,7 km/h (3 Bft)
16.08.2014 10:32 15,6 C 15,0 C 95 % 1019,0 hPa 0,0 l/m 2 min 0 min 1,7 UV-I 335 W/m 24,7 km/h (4 Bft)
16.08.2014 10:34 15,7 C 14,4 C 95 % 1019,1 hPa 0,0 l/m 2 min 0 min 1,5 UV-I 313 W/m 31,7 km/h (5 Bft)
16.08.2014 10:36 15,7 C 14,4 C 94 % 1019,1 hPa 0,0 l/m 0 min 0 min 1,6 UV-I 223 W/m 24,7 km/h (4 Bft)
16.08.2014 10:38 15,7 C 14,4 C 94 % 1019,1 hPa 0,0 l/m 2 min 0 min 1,9 UV-I 313 W/m 10,7 km/h (2 Bft)
16.08.2014 10:40 15,8 C 15,0 C 94 % 1019,1 hPa 0,0 l/m 2 min 0 min 1,9 UV-I 313 W/m 24,7 km/h (4 Bft)
16.08.2014 10:42 16,0 C 15,0 C 94 % 1019,1 hPa 0,0 l/m 2 min 0 min 2,2 UV-I 313 W/m 24,7 km/h (4 Bft)
16.08.2014 10:44 16,1 C 15,0 C 94 % 1019,2 hPa 0,0 l/m 2 min 0 min 2,3 UV-I 499 W/m 31,7 km/h (5 Bft)
16.08.2014 10:46 16,3 C 15,6 C 93 % 1019,2 hPa 0,0 l/m 2 min 0 min 2,7 UV-I 679 W/m 28,2 km/h (4 Bft)
16.08.2014 10:48 16,6 C 15,6 C 93 % 1019,2 hPa 0,0 l/m 2 min 0 min 2,3 UV-I 665 W/m 31,7 km/h (5 Bft)
16.08.2014 10:50 16,7 C 15,6 C 92 % 1019,1 hPa 0,0 l/m 2 min 0 min 1,2 UV-I 511 W/m 24,7 km/h (4 Bft)
16.08.2014 10:52 16,6 C 15,0 C 91 % 1019,2 hPa 0,0 l/m 0 min 0 min 0,9 UV-I 191 W/m 21,3 km/h (4 Bft)
16.08.2014 10:54 16,5 C 15,0 C 91 % 1019,2 hPa 0,0 l/m 0 min 0 min 1,0 UV-I 171 W/m 28,2 km/h (4 Bft)
16.08.2014 10:56 16,3 C 15,0 C 91 % 1019,3 hPa 0,0 l/m 0 min 0 min 1,3 UV-I 224 W/m 28,2 km/h (4 Bft)
16.08.2014 10:58 16,4 C 15,0 C 91 % 1019,2 hPa 0,0 l/m 0 min 0 min 1,4 UV-I 227 W/m 28,2 km/h (4 Bft)
16.08.2014 11:00 16,3 C 15,0 C 90 % 1019,2 hPa 0,0 l/m 2 min 0 min 2,5 UV-I 424 W/m 38,9 km/h (6 Bft)
16.08.2014 11:02 16,7 C 15,6 C 91 % 1019,2 hPa 0,0 l/m 2 min 0 min 2,8 UV-I 778 W/m 24,7 km/h (4 Bft)
16.08.2014 11:04 16,8 C 15,6 C 89 % 1019,3 hPa 0,0 l/m 2 min 0 min 1,8 UV-I 593 W/m 21,3 km/h (4 Bft)
16.08.2014 11:06 16,9 C 15,6 C 88 % 1019,2 hPa 0,0 l/m 0 min 0 min 1,8 UV-I 226 W/m 21,3 km/h (4 Bft)
16.08.2014 11:08 16,8 C 15,0 C 86 % 1019,1 hPa 0,0 l/m 0 min 0 min 1,5 UV-I 273 W/m 24,7 km/h (4 Bft)
16.08.2014 11:10 16,9 C 15,0 C 87 % 1019,3 hPa 0,0 l/m 2 min 0 min 2,0 UV-I 353 W/m 17,7 km/h (3 Bft)
16.08.2014 11:12 17,1 C 15,0 C 87 % 1019,3 hPa 0,0 l/m 2 min 0 min 2,3 UV-I 671 W/m 24,7 km/h (4 Bft)
16.08.2014 11:14 17,1 C 15,0 C 86 % 1019,3 hPa 0,0 l/m 0 min 0 min 1,6 UV-I 132 W/m 0,0 km/h (0 Bft)
16.08.2014 11:16 17,1 C 15,0 C 86 % 1019,3 hPa 0,0 l/m 0 min 0 min 2,3 UV-I 132 W/m 21,3 km/h (4 Bft)
16.08.2014 11:18 17,2 C 15,0 C 86 % 1019,3 hPa 0,0 l/m 2 min 0 min 3,2 UV-I 661 W/m 24,7 km/h (4 Bft)
16.08.2014 11:20 17,4 C 15,6 C 85 % 1019,3 hPa 0,0 l/m 2 min 0 min 3,3 UV-I 712 W/m 17,7 km/h (3 Bft)
16.08.2014 11:22 17,6 C 15,6 C 84 % 1019,3 hPa 0,0 l/m 2 min 0 min 3,3 UV-I 713 W/m 21,3 km/h (4 Bft)
16.08.2014 11:24 17,9 C 15,6 C 85 % 1019,2 hPa 0,0 l/m 2 min 0 min 3,3 UV-I 702 W/m 28,2 km/h (4 Bft)
16.08.2014 11:26 18,0 C 15,6 C 81 % 1019,3 hPa 0,0 l/m 2 min 0 min 3,4 UV-I 692 W/m 31,7 km/h (5 Bft)
16.08.2014 11:28 18,1 C 15,6 C 80 % 1019,3 hPa 0,0 l/m 2 min 0 min 3,4 UV-I 722 W/m 24,7 km/h (4 Bft)
16.08.2014 11:30 18,1 C 15,6 C 79 % 1019,2 hPa 0,0 l/m 2 min 0 min 2,2 UV-I 467 W/m 28,2 km/h (4 Bft)
16.08.2014 11:32 18,2 C 16,1 C 81 % 1019,2 hPa 0,0 l/m 2 min 0 min 3,3 UV-I 567 W/m 24,7 km/h (4 Bft)
16.08.2014 11:34 18,2 C 16,1 C 78 % 1019,1 hPa 0,0 l/m 2 min 0 min 2,8 UV-I 779 W/m 28,2 km/h (4 Bft)
16.08.2014 11:36 18,3 C 16,7 C 80 % 1019,2 hPa 0,0 l/m 2 min 0 min 2,8 UV-I 779 W/m 17,7 km/h (3 Bft)
16.08.2014 11:38 18,5 C 16,7 C 82 % 1019,2 hPa 0,0 l/m 2 min 0 min 3,5 UV-I 800 W/m 24,7 km/h (4 Bft)
16.08.2014 11:40 18,4 C 16,7 C 78 % 1019,1 hPa 0,0 l/m 2 min 0 min 2,7 UV-I 799 W/m 17,7 km/h (3 Bft)
16.08.2014 11:42 18,3 C 16,7 C 79 % 1019,2 hPa 0,0 l/m 0 min 0 min 1,8 UV-I 223 W/m 24,7 km/h (4 Bft)
16.08.2014 11:44 18,2 C 16,7 C 78 % 1019,1 hPa 0,0 l/m 2 min 0 min 3,5 UV-I 585 W/m 17,7 km/h (3 Bft)
16.08.2014 11:46 18,3 C 16,7 C 79 % 1019,1 hPa 0,0 l/m 2 min 0 min 3,6 UV-I 751 W/m 21,3 km/h (4 Bft)
16.08.2014 11:48 18,4 C 16,7 C 78 % 1019,1 hPa 0,0 l/m 2 min 0 min 3,6 UV-I 731 W/m 28,2 km/h (4 Bft)
16.08.2014 11:50 18,6 C 16,7 C 80 % 1019,1 hPa 0,0 l/m 2 min 0 min 3,7 UV-I 762 W/m 31,7 km/h (5 Bft)
16.08.2014 11:52 18,7 C 17,2 C 78 % 1019,1 hPa 0,0 l/m 2 min 0 min 3,6 UV-I 780 W/m 35,4 km/h (5 Bft)
16.08.2014 11:54 18,7 C 17,2 C 77 % 1019,0 hPa 0,0 l/m 2 min 0 min 3,0 UV-I 787 W/m 24,7 km/h (4 Bft)
16.08.2014 11:56 18,7 C 16,7 C 78 % 1019,0 hPa 0,0 l/m 0 min 0 min 2,2 UV-I 347 W/m 24,7 km/h (4 Bft)
16.08.2014 11:58 18,8 C 16,7 C 78 % 1019,0 hPa 0,0 l/m 2 min 0 min 3,8 UV-I 673 W/m 24,7 km/h (4 Bft)
16.08.2014 12:00 19,1 C 17,2 C 77 % 1019,0 hPa 0,0 l/m 2 min 0 min 3,8 UV-I 751 W/m 28,2 km/h (4 Bft)
16.08.2014 12:02 19,1 C 17,2 C 75 % 1019,0 hPa 0,0 l/m 2 min 0 min 3,8 UV-I 784 W/m 21,3 km/h (4 Bft)
16.08.2014 12:06 19,1 C 17,2 C 76 % 1019,0 hPa 0,0 l/m 2 min 0 min 3,2 UV-I 807 W/m 24,7 km/h (4 Bft)
16.08.2014 12:08 18,9 C 16,7 C 75 % 1019,0 hPa 0,0 l/m 2 min 0 min 2,5 UV-I 842 W/m 24,7 km/h (4 Bft)
16.08.2014 12:10 18,8 C 17,2 C 76 % 1019,0 hPa 0,0 l/m 0 min 0 min 3,4 UV-I 337 W/m 28,2 km/h (4 Bft)
16.08.2014 12:12 18,9 C 16,7 C 80 % 1019,0 hPa 0,0 l/m 0 min 0 min 2,9 UV-I 236 W/m 21,3 km/h (4 Bft)
16.08.2014 12:14 18,8 C 17,2 C 81 % 1019,0 hPa 0,0 l/m 2 min 0 min 3,5 UV-I 402 W/m 31,7 km/h (5 Bft)
16.08.2014 12:16 18,8 C 17,8 C 80 % 1019,0 hPa 0,0 l/m 2 min 0 min 4,0 UV-I 702 W/m 24,7 km/h (4 Bft)
16.08.2014 12:18 19,1 C 17,8 C 78 % 1019,0 hPa 0,0 l/m 2 min 0 min 3,8 UV-I 602 W/m 24,7 km/h (4 Bft)
16.08.2014 12:20 19,2 C 17,8 C 75 % 1019,0 hPa 0,0 l/m 0 min 0 min 3,7 UV-I 285 W/m 38,9 km/h (6 Bft)
16.08.2014 12:22 19,2 C 17,8 C 77 % 1019,0 hPa 0,0 l/m 2 min 0 min 4,0 UV-I 538 W/m 31,7 km/h (5 Bft)
16.08.2014 12:24 19,3 C 17,8 C 78 % 1019,0 hPa 0,0 l/m 2 min 0 min 4,1 UV-I 829 W/m 28,2 km/h (4 Bft)
16.08.2014 12:26 19,4 C 18,3 C 76 % 1018,9 hPa 0,0 l/m 2 min 0 min 3,7 UV-I 793 W/m 31,7 km/h (5 Bft)
16.08.2014 12:28 19,4 C 17,8 C 76 % 1019,0 hPa 0,0 l/m 2 min 0 min 3,9 UV-I 629 W/m 28,2 km/h (4 Bft)
16.08.2014 12:30 19,6 C 17,8 C 75 % 1018,9 hPa 0,0 l/m 2 min 0 min 4,1 UV-I 582 W/m 17,7 km/h (3 Bft)
16.08.2014 12:32 19,8 C 18,3 C 77 % 1018,9 hPa 0,0 l/m 2 min 0 min 4,0 UV-I 608 W/m 24,7 km/h (4 Bft)
16.08.2014 12:34 20,0 C 18,9 C 76 % 1018,9 hPa 0,0 l/m 2 min 0 min 4,0 UV-I 512 W/m 28,2 km/h (4 Bft)
16.08.2014 12:36 19,9 C 18,9 C 73 % 1018,9 hPa 0,0 l/m 2 min 0 min 3,4 UV-I 435 W/m 17,7 km/h (3 Bft)
16.08.2014 12:38 19,8 C 18,9 C 74 % 1018,9 hPa 0,0 l/m 2 min 0 min 3,4 UV-I 482 W/m 24,7 km/h (4 Bft)
16.08.2014 12:40 19,7 C 18,3 C 75 % 1018,9 hPa 0,0 l/m 2 min 0 min 2,4 UV-I 486 W/m 24,7 km/h (4 Bft)
16.08.2014 12:42 19,5 C 17,8 C 75 % 1018,9 hPa 0,0 l/m 0 min 0 min 2,2 UV-I 293 W/m 17,7 km/h (3 Bft)
16.08.2014 12:44 19,3 C 17,8 C 75 % 1019,0 hPa 0,0 l/m 0 min 0 min 2,3 UV-I 307 W/m 17,7 km/h (3 Bft)
16.08.2014 12:46 19,2 C 17,8 C 75 % 1018,9 hPa 0,0 l/m 0 min 0 min 2,4 UV-I 323 W/m 21,3 km/h (4 Bft)
16.08.2014 12:48 19,2 C 17,8 C 73 % 1018,9 hPa 0,0 l/m 0 min 0 min 2,8 UV-I 374 W/m 14,2 km/h (3 Bft)
16.08.2014 12:50 19,2 C 17,8 C 74 % 1018,9 hPa 0,0 l/m 0 min 0 min 2,7 UV-I 313 W/m 17,7 km/h (3 Bft)
16.08.2014 12:52 19,3 C 18,3 C 75 % 1018,9 hPa 0,0 l/m 2 min 0 min 3,5 UV-I 607 W/m 14,2 km/h (3 Bft)
16.08.2014 12:54 19,6 C 18,3 C 77 % 1018,9 hPa 0,0 l/m 2 min 0 min 3,6 UV-I 620 W/m 28,2 km/h (4 Bft)
16.08.2014 12:56 19,7 C 18,3 C 74 % 1018,9 hPa 0,0 l/m 2 min 0 min 3,6 UV-I 691 W/m 31,7 km/h (5 Bft)
16.08.2014 12:58 19,6 C 18,3 C 73 % 1018,9 hPa 0,0 l/m 2 min 0 min 2,4 UV-I 482 W/m 38,9 km/h (6 Bft)
16.08.2014 13:00 19,5 C 17,8 C 75 % 1018,9 hPa 0,0 l/m 0 min 0 min 2,4 UV-I 300 W/m 28,2 km/h (4 Bft)
16.08.2014 13:02 19,4 C 17,8 C 74 % 1018,9 hPa 0,0 l/m 0 min 0 min 2,9 UV-I 301 W/m 17,7 km/h (3 Bft)
16.08.2014 13:04 19,3 C 17,8 C 73 % 1018,8 hPa 0,0 l/m 0 min 0 min 2,3 UV-I 243 W/m 24,7 km/h (4 Bft)
16.08.2014 13:06 19,2 C 18,3 C 73 % 1018,8 hPa 0,0 l/m 0 min 0 min 3,6 UV-I 255 W/m 21,3 km/h (4 Bft)
16.08.2014 13:08 19,3 C 18,9 C 72 % 1018,7 hPa 0,0 l/m 2 min 0 min 4,0 UV-I 418 W/m 21,3 km/h (4 Bft)
16.08.2014 13:10 19,6 C 19,4 C 70 % 1018,8 hPa 0,0 l/m 2 min 0 min 4,0 UV-I 715 W/m 28,2 km/h (4 Bft)
16.08.2014 13:12 19,8 C 19,4 C 70 % 1018,8 hPa 0,0 l/m 2 min 0 min 3,6 UV-I 692 W/m 17,7 km/h (3 Bft)
16.08.2014 13:14 19,7 C 19,4 C 68 % 1018,8 hPa 0,0 l/m 0 min 0 min 2,8 UV-I 354 W/m 21,3 km/h (4 Bft)
16.08.2014 13:16 19,5 C 19,4 C 70 % 1018,7 hPa 0,0 l/m 2 min 0 min 3,7 UV-I 610 W/m 28,2 km/h (4 Bft)
16.08.2014 13:18 19,7 C 19,4 C 70 % 1018,7 hPa 0,0 l/m 2 min 0 min 3,8 UV-I 585 W/m 28,2 km/h (4 Bft)
16.08.2014 13:20 19,6 C 19,4 C 68 % 1018,8 hPa 0,0 l/m 2 min 0 min 3,7 UV-I 566 W/m 24,7 km/h (4 Bft)
16.08.2014 13:22 19,8 C 19,4 C 71 % 1018,8 hPa 0,0 l/m 2 min 0 min 2,9 UV-I 676 W/m 28,2 km/h (4 Bft)
16.08.2014 13:24 19,8 C 19,4 C 70 % 1018,8 hPa 0,0 l/m 0 min 0 min 2,2 UV-I 303 W/m 28,2 km/h (4 Bft)
16.08.2014 13:26 19,7 C 19,4 C 70 % 1018,8 hPa 0,0 l/m 0 min 0 min 2,0 UV-I 304 W/m 28,2 km/h (4 Bft)
16.08.2014 13:28 19,6 C 19,4 C 70 % 1018,8 hPa 0,0 l/m 2 min 0 min 2,6 UV-I 390 W/m 24,7 km/h (4 Bft)
16.08.2014 13:30 19,6 C 19,4 C 71 % 1018,8 hPa 0,0 l/m 2 min 0 min 4,1 UV-I 554 W/m 28,2 km/h (4 Bft)
16.08.2014 13:32 19,8 C 20,0 C 73 % 1018,6 hPa 0,0 l/m 2 min 0 min 4,1 UV-I 876 W/m 28,2 km/h (4 Bft)
16.08.2014 13:34 19,9 C 20,0 C 71 % 1018,7 hPa 0,0 l/m 2 min 0 min 4,1 UV-I 956 W/m 42,4 km/h (6 Bft)
16.08.2014 13:36 20,2 C 20,6 C 72 % 1018,7 hPa 0,0 l/m 2 min 0 min 4,5 UV-I 956 W/m 31,7 km/h (5 Bft)
16.08.2014 13:38 20,5 C 20,0 C 72 % 1018,6 hPa 0,0 l/m 2 min 0 min 3,3 UV-I 931 W/m 38,9 km/h (6 Bft)
16.08.2014 13:40 20,4 C 20,0 C 72 % 1018,7 hPa 0,0 l/m 2 min 0 min 2,7 UV-I 391 W/m 24,7 km/h (4 Bft)
16.08.2014 13:42 20,4 C 20,0 C 70 % 1018,7 hPa 0,0 l/m 2 min 0 min 3,1 UV-I 467 W/m 28,2 km/h (4 Bft)
16.08.2014 13:44 20,1 C 20,0 C 70 % 1018,7 hPa 0,0 l/m 2 min 0 min 2,8 UV-I 450 W/m 28,2 km/h (4 Bft)
16.08.2014 13:46 19,8 C 19,4 C 71 % 1018,7 hPa 0,0 l/m 0 min 0 min 1,8 UV-I 278 W/m 28,2 km/h (4 Bft)
16.08.2014 13:48 19,6 C 18,9 C 72 % 1018,6 hPa 0,0 l/m 0 min 0 min 1,0 UV-I 192 W/m 24,7 km/h (4 Bft)
16.08.2014 13:50 19,4 C 18,3 C 72 % 1018,6 hPa 0,0 l/m 0 min 0 min 0,7 UV-I 143 W/m 28,2 km/h (4 Bft)
16.08.2014 13:52 19,2 C 17,8 C 72 % 1018,7 hPa 0,0 l/m 0 min 0 min 0,0 UV-I 98 W/m 31,7 km/h (5 Bft)
16.08.2014 13:54 18,9 C 17,8 C 73 % 1018,7 hPa 0,0 l/m 0 min 2 min 0,0 UV-I 68 W/m 31,7 km/h (5 Bft)
16.08.2014 13:56 18,7 C 16,7 C 74 % 1018,6 hPa 0,0 l/m 0 min 2 min 0,0 UV-I 68 W/m 53,0 km/h (7 Bft)
16.08.2014 13:58 18,4 C 15,0 C 76 % 1018,7 hPa 0,2 l/m 0 min 2 min 0,0 UV-I 77 W/m 53,0 km/h (7 Bft)
16.08.2014 14:00 17,9 C 15,0 C 80 % 1018,8 hPa 0,0 l/m 0 min 2 min 0,0 UV-I 99 W/m 38,9 km/h (6 Bft)
16.08.2014 14:02 17,5 C 14,4 C 82 % 1018,7 hPa 0,0 l/m 0 min 2 min 0,2 UV-I 127 W/m 49,5 km/h (6 Bft)
16.08.2014 14:04 17,2 C 14,4 C 84 % 1018,8 hPa 0,0 l/m 0 min 2 min 0,7 UV-I 154 W/m 28,2 km/h (4 Bft)
16.08.2014 14:06 17,1 C 15,0 C 85 % 1018,8 hPa 0,0 l/m 0 min 0 min 0,9 UV-I 182 W/m 21,3 km/h (4 Bft)
16.08.2014 14:08 17,1 C 15,6 C 87 % 1018,8 hPa 0,0 l/m 0 min 0 min 1,2 UV-I 220 W/m 21,3 km/h (4 Bft)
16.08.2014 14:10 17,2 C 15,6 C 87 % 1018,8 hPa 0,0 l/m 0 min 0 min 1,6 UV-I 276 W/m 14,2 km/h (3 Bft)
16.08.2014 14:12 17,3 C 15,6 C 87 % 1018,9 hPa 0,0 l/m 0 min 0 min 2,1 UV-I 336 W/m 21,3 km/h (4 Bft)
16.08.2014 14:14 17,6 C 16,1 C 87 % 1018,8 hPa 0,0 l/m 0 min 0 min 2,4 UV-I 373 W/m 21,3 km/h (4 Bft)
16.08.2014 14:16 17,9 C 16,7 C 87 % 1018,7 hPa 0,0 l/m 2 min 0 min 3,1 UV-I 447 W/m 21,3 km/h (4 Bft)
16.08.2014 14:18 18,4 C 16,7 C 86 % 1018,8 hPa 0,0 l/m 2 min 0 min 4,1 UV-I 475 W/m 35,4 km/h (5 Bft)
16.08.2014 14:20 18,9 C 17,8 C 85 % 1018,7 hPa 0,0 l/m 2 min 0 min 3,8 UV-I 574 W/m 38,9 km/h (6 Bft)
16.08.2014 14:22 19,2 C 17,2 C 82 % 1018,7 hPa 0,0 l/m 2 min 0 min 3,0 UV-I 538 W/m 42,4 km/h (6 Bft)
16.08.2014 14:24 19,1 C 16,7 C 77 % 1018,7 hPa 0,0 l/m 0 min 0 min 2,0 UV-I 308 W/m 46,0 km/h (6 Bft)
16.08.2014 14:26 18,8 C 16,1 C 74 % 1018,7 hPa 0,0 l/m 0 min 0 min 1,2 UV-I 210 W/m 49,5 km/h (6 Bft)
16.08.2014 14:28 18,7 C 16,1 C 76 % 1018,7 hPa 0,0 l/m 0 min 0 min 0,7 UV-I 163 W/m 38,9 km/h (6 Bft)
16.08.2014 14:30 18,4 C 15,6 C 76 % 1018,8 hPa 0,0 l/m 0 min 0 min 0,1 UV-I 117 W/m 56,5 km/h (7 Bft)
16.08.2014 14:32 18,3 C 15,6 C 76 % 1018,8 hPa 0,0 l/m 0 min 0 min 0,0 UV-I 107 W/m 49,5 km/h (6 Bft)
16.08.2014 14:34 18,1 C 15,6 C 76 % 1018,9 hPa 0,0 l/m 0 min 2 min 0,0 UV-I 125 W/m 63,7 km/h (8 Bft)
16.08.2014 14:36 17,9 C 15,6 C 78 % 1019,0 hPa 0,0 l/m 0 min 2 min 0,5 UV-I 158 W/m 35,4 km/h (5 Bft)
16.08.2014 14:38 17,6 C 15,6 C 78 % 1019,0 hPa 0,0 l/m 0 min 2 min 0,9 UV-I 215 W/m 56,5 km/h (7 Bft)
16.08.2014 14:40 17,4 C 15,6 C 78 % 1019,0 hPa 0,0 l/m 0 min 2 min 1,0 UV-I 215 W/m 46,0 km/h (6 Bft)
16.08.2014 14:42 17,3 C 15,6 C 77 % 1018,9 hPa 0,0 l/m 0 min 2 min 1,1 UV-I 223 W/m 49,5 km/h (6 Bft)
16.08.2014 14:44 17,3 C 15,6 C 79 % 1018,9 hPa 0,0 l/m 0 min 0 min 1,1 UV-I 219 W/m 35,4 km/h (5 Bft)
16.08.2014 14:46 17,2 C 16,1 C 79 % 1018,9 hPa 0,0 l/m 0 min 2 min 0,9 UV-I 190 W/m 42,4 km/h (6 Bft)
16.08.2014 14:48 17,1 C 15,6 C 79 % 1018,9 hPa 0,0 l/m 0 min 2 min 0,8 UV-I 177 W/m 38,9 km/h (6 Bft)
16.08.2014 14:50 16,9 C 15,0 C 80 % 1018,8 hPa 0,0 l/m 0 min 2 min 0,8 UV-I 173 W/m 31,7 km/h (5 Bft)
16.08.2014 14:52 16,8 C 15,6 C 80 % 1018,8 hPa 0,0 l/m 0 min 0 min 0,7 UV-I 166 W/m 17,7 km/h (3 Bft)
16.08.2014 14:54 16,7 C 15,6 C 81 % 1018,7 hPa 0,0 l/m 0 min 0 min 0,6 UV-I 157 W/m 17,7 km/h (3 Bft)
16.08.2014 14:56 16,7 C 15,6 C 82 % 1018,7 hPa 0,0 l/m 0 min 0 min 0,5 UV-I 151 W/m 7,1 km/h (2 Bft)
16.08.2014 14:58 16,7 C 15,6 C 81 % 1018,6 hPa 0,0 l/m 0 min 0 min 0,5 UV-I 148 W/m 21,3 km/h (4 Bft)
16.08.2014 15:00 16,7 C 16,1 C 82 % 1018,6 hPa 0,0 l/m 0 min 0 min 0,5 UV-I 148 W/m 3,5 km/h (1 Bft)
16.08.2014 15:02 16,8 C 16,1 C 82 % 1018,6 hPa 0,0 l/m 0 min 0 min 0,6 UV-I 161 W/m 7,1 km/h (2 Bft)
16.08.2014 15:04 16,9 C 16,1 C 83 % 1018,5 hPa 0,0 l/m 0 min 0 min 0,7 UV-I 170 W/m 10,7 km/h (2 Bft)
16.08.2014 15:06 17,0 C 16,1 C 84 % 1018,5 hPa 0,0 l/m 0 min 0 min 0,7 UV-I 178 W/m 3,5 km/h (1 Bft)
16.08.2014 15:08 17,1 C 16,7 C 83 % 1018,4 hPa 0,0 l/m 0 min 0 min 0,9 UV-I 196 W/m 17,7 km/h (3 Bft)
16.08.2014 15:10 17,1 C 16,7 C 82 % 1018,5 hPa 0,0 l/m 0 min 0 min 0,9 UV-I 206 W/m 0,0 km/h (0 Bft)
16.08.2014 15:12 17,1 C 16,7 C 81 % 1018,4 hPa 0,0 l/m 0 min 0 min 0,9 UV-I 211 W/m 21,3 km/h (4 Bft)
16.08.2014 15:14 17,1 C 16,7 C 81 % 1018,3 hPa 0,0 l/m 0 min 0 min 1,0 UV-I 228 W/m 10,7 km/h (2 Bft)
16.08.2014 15:16 17,1 C 16,7 C 79 % 1018,4 hPa 0,0 l/m 0 min 0 min 1,2 UV-I 248 W/m 3,5 km/h (1 Bft)
16.08.2014 15:18 17,3 C 17,2 C 81 % 1018,4 hPa 0,0 l/m 0 min 0 min 1,3 UV-I 274 W/m 3,5 km/h (1 Bft)
16.08.2014 15:20 17,4 C 17,2 C 82 % 1018,3 hPa 0,0 l/m 0 min 0 min 1,6 UV-I 307 W/m 10,7 km/h (2 Bft)
16.08.2014 15:22 17,5 C 17,8 C 80 % 1018,3 hPa 0,0 l/m 0 min 0 min 1,8 UV-I 327 W/m 10,7 km/h (2 Bft)
16.08.2014 15:24 17,7 C 17,8 C 80 % 1018,2 hPa 0,0 l/m 0 min 0 min 1,8 UV-I 311 W/m 17,7 km/h (3 Bft)
16.08.2014 15:26 17,8 C 17,8 C 81 % 1018,1 hPa 0,0 l/m 0 min 0 min 1,5 UV-I 262 W/m 10,7 km/h (2 Bft)
16.08.2014 15:28 17,9 C 17,8 C 81 % 1018,1 hPa 0,0 l/m 0 min 0 min 1,0 UV-I 200 W/m 3,5 km/h (1 Bft)
16.08.2014 15:30 17,9 C 17,2 C 79 % 1018,1 hPa 0,0 l/m 0 min 0 min 0,1 UV-I 128 W/m 0,0 km/h (0 Bft)
16.08.2014 15:32 17,8 C 17,2 C 80 % 1018,1 hPa 0,0 l/m 0 min 0 min 0,0 UV-I 96 W/m 10,7 km/h (2 Bft)
16.08.2014 15:34 17,6 C 16,7 C 80 % 1018,0 hPa 0,0 l/m 0 min 0 min 0,0 UV-I 76 W/m 7,1 km/h (2 Bft)
16.08.2014 15:36 17,6 C 16,7 C 79 % 1018,0 hPa 0,0 l/m 0 min 0 min 0,0 UV-I 63 W/m 10,7 km/h (2 Bft)
16.08.2014 15:38 17,5 C 16,7 C 80 % 1018,0 hPa 0,0 l/m 0 min 0 min 0,0 UV-I 48 W/m 0,0 km/h (0 Bft)
16.08.2014 15:40 17,4 C 16,1 C 81 % 1018,0 hPa 0,0 l/m 0 min 2 min 0,0 UV-I 35 W/m 10,7 km/h (2 Bft)
16.08.2014 15:42 17,3 C 15,6 C 81 % 1018,1 hPa 0,0 l/m 0 min 2 min 0,0 UV-I 29 W/m 10,7 km/h (2 Bft)
16.08.2014 15:44 17,3 C 14,4 C 83 % 1018,2 hPa 0,2 l/m 0 min 2 min 0,0 UV-I 34 W/m 14,2 km/h (3 Bft)
16.08.2014 15:46 17,1 C 14,4 C 85 % 1018,3 hPa 0,8 l/m 0 min 2 min 0,0 UV-I 42 W/m 3,5 km/h (1 Bft)
16.08.2014 15:48 16,8 C 14,4 C 86 % 1018,3 hPa 0,2 l/m 0 min 2 min 0,0 UV-I 52 W/m 0,0 km/h (0 Bft)
16.08.2014 15:50 16,6 C 14,4 C 88 % 1018,4 hPa 0,0 l/m 0 min 2 min 0,0 UV-I 53 W/m 10,7 km/h (2 Bft)
16.08.2014 15:52 16,4 C 14,4 C 89 % 1018,5 hPa 0,2 l/m 0 min 2 min 0,0 UV-I 32 W/m 14,2 km/h (3 Bft)
16.08.2014 15:54 16,3 C 14,4 C 90 % 1018,7 hPa 0,4 l/m 0 min 2 min 0,0 UV-I 23 W/m 17,7 km/h (3 Bft)
16.08.2014 15:56 16,1 C 13,9 C 91 % 1018,7 hPa 0,6 l/m 0 min 2 min 0,0 UV-I 32 W/m 24,7 km/h (4 Bft)
16.08.2014 15:58 15,9 C 13,9 C 91 % 1018,7 hPa 0,6 l/m 0 min 2 min 0,0 UV-I 60 W/m 31,7 km/h (5 Bft)
16.08.2014 16:00 15,7 C 13,9 C 92 % 1018,5 hPa 0,4 l/m 0 min 2 min 0,0 UV-I 96 W/m 17,7 km/h (3 Bft)
16.08.2014 16:02 15,7 C 14,4 C 93 % 1018,7 hPa 0,0 l/m 0 min 2 min 0,0 UV-I 104 W/m 17,7 km/h (3 Bft)
16.08.2014 16:04 15,7 C 14,4 C 93 % 1018,7 hPa 0,0 l/m 0 min 2 min 0,0 UV-I 122 W/m 24,7 km/h (4 Bft)
16.08.2014 16:06 15,6 C 14,4 C 94 % 1018,6 hPa 0,0 l/m 0 min 0 min 0,0 UV-I 143 W/m 21,3 km/h (4 Bft)
16.08.2014 16:08 15,6 C 14,4 C 94 % 1018,5 hPa 0,0 l/m 0 min 0 min 0,3 UV-I 161 W/m 21,3 km/h (4 Bft)
16.08.2014 16:10 15,6 C 15,0 C 95 % 1018,6 hPa 0,0 l/m 0 min 0 min 0,6 UV-I 182 W/m 14,2 km/h (3 Bft)
16.08.2014 16:12 15,7 C 15,0 C 95 % 1018,5 hPa 0,0 l/m 0 min 0 min 0,7 UV-I 202 W/m 0,0 km/h (0 Bft)
16.08.2014 16:14 15,8 C 15,0 C 95 % 1018,6 hPa 0,0 l/m 0 min 0 min 0,8 UV-I 209 W/m 17,7 km/h (3 Bft)
16.08.2014 16:16 15,9 C 15,0 C 96 % 1018,5 hPa 0,0 l/m 0 min 0 min 0,8 UV-I 226 W/m 17,7 km/h (3 Bft)
16.08.2014 16:18 15,9 C 15,0 C 96 % 1018,5 hPa 0,0 l/m 0 min 0 min 0,9 UV-I 223 W/m 14,2 km/h (3 Bft)
16.08.2014 16:20 15,9 C 15,0 C 96 % 1018,5 hPa 0,0 l/m 0 min 0 min 0,8 UV-I 201 W/m 17,7 km/h (3 Bft)
16.08.2014 16:22 15,9 C 15,0 C 96 % 1018,5 hPa 0,0 l/m 0 min 0 min 0,7 UV-I 183 W/m 21,3 km/h (4 Bft)
16.08.2014 16:24 15,9 C 15,0 C 96 % 1018,5 hPa 0,0 l/m 0 min 0 min 0,6 UV-I 180 W/m 17,7 km/h (3 Bft)
16.08.2014 16:26 16,0 C 15,0 C 96 % 1018,5 hPa 0,0 l/m 0 min 0 min 0,7 UV-I 200 W/m 10,7 km/h (2 Bft)
16.08.2014 16:28 16,1 C 15,6 C 96 % 1018,5 hPa 0,0 l/m 0 min 0 min 0,8 UV-I 234 W/m 14,2 km/h (3 Bft)
16.08.2014 16:30 16,2 C 15,6 C 96 % 1018,5 hPa 0,0 l/m 0 min 0 min 1,0 UV-I 277 W/m 7,1 km/h (2 Bft)
16.08.2014 16:32 16,3 C 16,1 C 96 % 1018,5 hPa 0,0 l/m 0 min 0 min 1,1 UV-I 301 W/m 21,3 km/h (4 Bft)
16.08.2014 16:34 16,4 C 16,1 C 96 % 1018,4 hPa 0,0 l/m 0 min 0 min 1,2 UV-I 301 W/m 21,3 km/h (4 Bft)
16.08.2014 16:36 16,4 C 16,1 C 96 % 1018,3 hPa 0,0 l/m 0 min 0 min 1,2 UV-I 290 W/m 14,2 km/h (3 Bft)
16.08.2014 16:38 16,5 C 16,1 C 96 % 1018,3 hPa 0,0 l/m 2 min 0 min 1,4 UV-I 364 W/m 21,3 km/h (4 Bft)
16.08.2014 16:40 16,8 C 16,7 C 96 % 1018,2 hPa 0,0 l/m 2 min 0 min 1,5 UV-I 430 W/m 14,2 km/h (3 Bft)
16.08.2014 16:42 16,9 C 16,7 C 96 % 1018,3 hPa 0,0 l/m 2 min 0 min 1,4 UV-I 406 W/m 17,7 km/h (3 Bft)
16.08.2014 16:44 17,1 C 16,7 C 96 % 1018,3 hPa 0,0 l/m 2 min 0 min 1,3 UV-I 375 W/m 17,7 km/h (3 Bft)
16.08.2014 16:46 17,1 C 16,7 C 96 % 1018,3 hPa 0,0 l/m 2 min 0 min 1,2 UV-I 335 W/m 24,7 km/h (4 Bft)
16.08.2014 16:48 17,1 C 16,7 C 95 % 1018,3 hPa 0,0 l/m 2 min 0 min 1,1 UV-I 303 W/m 28,2 km/h (4 Bft)
16.08.2014 16:50 17,1 C 16,7 C 94 % 1018,2 hPa 0,0 l/m 2 min 0 min 1,1 UV-I 310 W/m 28,2 km/h (4 Bft)
16.08.2014 16:52 17,1 C 16,7 C 94 % 1018,2 hPa 0,0 l/m 2 min 0 min 1,1 UV-I 301 W/m 21,3 km/h (4 Bft)
16.08.2014 16:54 17,2 C 16,7 C 93 % 1018,2 hPa 0,0 l/m 0 min 0 min 0,9 UV-I 243 W/m 31,7 km/h (5 Bft)
16.08.2014 16:56 17,2 C 16,1 C 92 % 1018,2 hPa 0,0 l/m 0 min 0 min 1,0 UV-I 281 W/m 21,3 km/h (4 Bft)
16.08.2014 16:58 17,2 C 16,7 C 92 % 1018,2 hPa 0,0 l/m 2 min 0 min 1,0 UV-I 288 W/m 28,2 km/h (4 Bft)
16.08.2014 17:00 17,2 C 16,1 C 91 % 1018,3 hPa 0,0 l/m 0 min 0 min 0,9 UV-I 261 W/m 35,4 km/h (5 Bft)
16.08.2014 17:02 17,1 C 16,1 C 90 % 1018,3 hPa 0,0 l/m 2 min 0 min 1,0 UV-I 304 W/m 31,7 km/h (5 Bft)
16.08.2014 17:04 17,3 C 16,7 C 90 % 1018,2 hPa 0,0 l/m 2 min 0 min 1,1 UV-I 398 W/m 24,7 km/h (4 Bft)
16.08.2014 17:06 17,4 C 16,7 C 91 % 1018,2 hPa 0,0 l/m 2 min 0 min 0,9 UV-I 299 W/m 14,2 km/h (3 Bft)
16.08.2014 17:08 17,5 C 16,7 C 91 % 1018,3 hPa 0,0 l/m 0 min 0 min 0,8 UV-I 263 W/m 28,2 km/h (4 Bft)
16.08.2014 17:10 17,4 C 16,1 C 89 % 1018,3 hPa 0,0 l/m 0 min 0 min 0,8 UV-I 216 W/m 35,4 km/h (5 Bft)
16.08.2014 17:12 17,4 C 16,1 C 89 % 1018,3 hPa 0,0 l/m 0 min 0 min 0,6 UV-I 199 W/m 35,4 km/h (5 Bft)
16.08.2014 17:14 17,4 C 16,1 C 89 % 1018,3 hPa 0,0 l/m 0 min 0 min 0,6 UV-I 182 W/m 35,4 km/h (5 Bft)
16.08.2014 17:16 17,2 C 16,1 C 88 % 1018,2 hPa 0,0 l/m 0 min 0 min 0,5 UV-I 203 W/m 56,5 km/h (7 Bft)
16.08.2014 17:18 17,2 C 16,1 C 87 % 1018,2 hPa 0,0 l/m 0 min 0 min 0,6 UV-I 219 W/m 46,0 km/h (6 Bft)
16.08.2014 17:20 17,2 C 16,1 C 87 % 1018,2 hPa 0,0 l/m 0 min 0 min 0,6 UV-I 234 W/m 53,0 km/h (7 Bft)
16.08.2014 17:22 17,2 C 16,1 C 87 % 1018,2 hPa 0,0 l/m 0 min 0 min 0,6 UV-I 236 W/m 46,0 km/h (6 Bft)
16.08.2014 17:24 17,2 C 16,1 C 87 % 1018,2 hPa 0,0 l/m 0 min 0 min 0,6 UV-I 224 W/m 28,2 km/h (4 Bft)
16.08.2014 17:26 17,3 C 16,1 C 87 % 1018,2 hPa 0,0 l/m 0 min 0 min 0,5 UV-I 203 W/m 38,9 km/h (6 Bft)
16.08.2014 17:28 17,3 C 16,1 C 87 % 1018,2 hPa 0,0 l/m 0 min 0 min 0,0 UV-I 185 W/m 42,4 km/h (6 Bft)
16.08.2014 17:30 17,3 C 15,6 C 86 % 1018,2 hPa 0,0 l/m 0 min 0 min 0,0 UV-I 176 W/m 42,4 km/h (6 Bft)
16.08.2014 17:32 17,3 C 15,6 C 87 % 1018,1 hPa 0,0 l/m 0 min 0 min 0,0 UV-I 172 W/m 24,7 km/h (4 Bft)
16.08.2014 17:34 17,2 C 15,6 C 87 % 1018,1 hPa 0,0 l/m 0 min 0 min 0,0 UV-I 182 W/m 21,3 km/h (4 Bft)
16.08.2014 17:36 17,3 C 16,1 C 87 % 1018,1 hPa 0,0 l/m 0 min 0 min 0,0 UV-I 187 W/m 31,7 km/h (5 Bft)
16.08.2014 17:38 17,3 C 15,6 C 87 % 1018,0 hPa 0,0 l/m 0 min 0 min 0,0 UV-I 173 W/m 42,4 km/h (6 Bft)
16.08.2014 17:40 17,3 C 15,6 C 87 % 1018,1 hPa 0,0 l/m 0 min 0 min 0,0 UV-I 167 W/m 31,7 km/h (5 Bft)
16.08.2014 17:42 17,2 C 15,6 C 86 % 1018,0 hPa 0,0 l/m 0 min 0 min 0,0 UV-I 167 W/m 31,7 km/h (5 Bft)
16.08.2014 17:44 17,2 C 15,6 C 86 % 1018,0 hPa 0,0 l/m 0 min 0 min 0,0 UV-I 173 W/m 24,7 km/h (4 Bft)
16.08.2014 17:46 17,2 C 16,1 C 86 % 1018,0 hPa 0,0 l/m 0 min 0 min 0,0 UV-I 188 W/m 35,4 km/h (5 Bft)
16.08.2014 17:48 17,3 C 16,1 C 86 % 1018,1 hPa 0,0 l/m 0 min 0 min 0,0 UV-I 199 W/m 24,7 km/h (4 Bft)
16.08.2014 17:50 17,3 C 16,1 C 85 % 1018,0 hPa 0,0 l/m 0 min 0 min 0,0 UV-I 213 W/m 28,2 km/h (4 Bft)
16.08.2014 17:52 17,4 C 16,1 C 85 % 1018,2 hPa 0,0 l/m 2 min 0 min 0,0 UV-I 229 W/m 28,2 km/h (4 Bft)
16.08.2014 17:54 17,4 C 16,1 C 83 % 1018,0 hPa 0,0 l/m 2 min 0 min 0,0 UV-I 222 W/m 38,9 km/h (6 Bft)
16.08.2014 17:56 17,4 C 16,1 C 82 % 1018,1 hPa 0,0 l/m 0 min 0 min 0,0 UV-I 203 W/m 42,4 km/h (6 Bft)
16.08.2014 17:58 17,4 C 15,6 C 81 % 1018,1 hPa 0,0 l/m 0 min 0 min 0,0 UV-I 195 W/m 53,0 km/h (7 Bft)
16.08.2014 18:00 17,4 C 15,6 C 80 % 1018,0 hPa 0,0 l/m 0 min 0 min 0,0 UV-I 196 W/m 49,5 km/h (6 Bft)
16.08.2014 18:02 17,3 C 15,6 C 78 % 1018,1 hPa 0,0 l/m 0 min 0 min 0,0 UV-I 205 W/m 49,5 km/h (6 Bft)
16.08.2014 18:06 17,2 C 15,6 C 78 % 1018,1 hPa 0,0 l/m 0 min 0 min 0,0 UV-I 200 W/m 56,5 km/h (7 Bft)
16.08.2014 18:08 17,2 C 15,6 C 79 % 1018,1 hPa 0,0 l/m 0 min 0 min 0,0 UV-I 183 W/m 46,0 km/h (6 Bft)
16.08.2014 18:10 17,2 C 15,6 C 77 % 1018,0 hPa 0,0 l/m 0 min 0 min 0,0 UV-I 174 W/m 38,9 km/h (6 Bft)
16.08.2014 18:12 17,1 C 15,6 C 78 % 1018,0 hPa 0,0 l/m 0 min 0 min 0,0 UV-I 162 W/m 53,0 km/h (7 Bft)
16.08.2014 18:14 17,1 C 15,6 C 77 % 1018,0 hPa 0,0 l/m 0 min 0 min 0,0 UV-I 153 W/m 53,0 km/h (7 Bft)
16.08.2014 18:16 17,0 C 15,0 C 76 % 1018,0 hPa 0,0 l/m 0 min 0 min 0,0 UV-I 155 W/m 46,0 km/h (6 Bft)
16.08.2014 18:18 16,9 C 15,0 C 76 % 1018,0 hPa 0,0 l/m 0 min 0 min 0,0 UV-I 160 W/m 42,4 km/h (6 Bft)
16.08.2014 18:20 16,9 C 15,6 C 77 % 1018,0 hPa 0,0 l/m 0 min 0 min 0,0 UV-I 162 W/m 53,0 km/h (7 Bft)
16.08.2014 18:22 16,9 C 15,0 C 76 % 1018,0 hPa 0,0 l/m 0 min 0 min 0,0 UV-I 155 W/m 42,4 km/h (6 Bft)
16.08.2014 18:24 16,8 C 15,0 C 77 % 1018,0 hPa 0,0 l/m 0 min 0 min 0,0 UV-I 145 W/m 35,4 km/h (5 Bft)
16.08.2014 18:26 16,8 C 15,0 C 79 % 1018,0 hPa 0,0 l/m 0 min 0 min 0,0 UV-I 135 W/m 31,7 km/h (5 Bft)
16.08.2014 18:28 16,8 C 15,0 C 79 % 1018,0 hPa 0,0 l/m 0 min 0 min 0,0 UV-I 129 W/m 35,4 km/h (5 Bft)
16.08.2014 18:30 16,7 C 15,0 C 78 % 1017,9 hPa 0,0 l/m 0 min 0 min 0,0 UV-I 127 W/m 31,7 km/h (5 Bft)
16.08.2014 18:32 16,7 C 15,0 C 78 % 1018,0 hPa 0,0 l/m 0 min 0 min 0,0 UV-I 130 W/m 35,4 km/h (5 Bft)
16.08.2014 18:34 16,7 C 15,0 C 78 % 1017,9 hPa 0,0 l/m 0 min 0 min 0,0 UV-I 143 W/m 35,4 km/h (5 Bft)
16.08.2014 18:36 16,7 C 15,0 C 78 % 1018,0 hPa 0,0 l/m 0 min 0 min 0,0 UV-I 146 W/m 35,4 km/h (5 Bft)
16.08.2014 18:38 16,7 C 15,0 C 78 % 1017,9 hPa 0,0 l/m 2 min 0 min 0,0 UV-I 167 W/m 31,7 km/h (5 Bft)
16.08.2014 18:40 16,7 C 15,6 C 77 % 1017,9 hPa 0,0 l/m 2 min 0 min 0,0 UV-I 173 W/m 31,7 km/h (5 Bft)
16.08.2014 18:42 16,8 C 15,6 C 78 % 1017,9 hPa 0,0 l/m 2 min 0 min 0,0 UV-I 247 W/m 35,4 km/h (5 Bft)
16.08.2014 18:44 16,9 C 15,6 C 77 % 1017,9 hPa 0,0 l/m 2 min 0 min 0,0 UV-I 232 W/m 28,2 km/h (4 Bft)
16.08.2014 18:46 17,0 C 15,6 C 78 % 1017,8 hPa 0,0 l/m 0 min 0 min 0,0 UV-I 132 W/m 28,2 km/h (4 Bft)
16.08.2014 18:48 16,9 C 15,6 C 77 % 1017,8 hPa 0,0 l/m 0 min 0 min 0,0 UV-I 102 W/m 56,5 km/h (7 Bft)
16.08.2014 18:50 16,9 C 15,0 C 77 % 1017,9 hPa 0,0 l/m 0 min 0 min 0,0 UV-I 86 W/m 46,0 km/h (6 Bft)
16.08.2014 18:52 16,8 C 15,0 C 76 % 1017,8 hPa 0,0 l/m 0 min 0 min 0,0 UV-I 83 W/m 49,5 km/h (6 Bft)
16.08.2014 18:54 16,8 C 15,0 C 77 % 1017,8 hPa 0,0 l/m 0 min 0 min 0,0 UV-I 83 W/m 24,7 km/h (4 Bft)
16.08.2014 18:56 16,7 C 15,0 C 78 % 1017,8 hPa 0,0 l/m 0 min 0 min 0,0 UV-I 86 W/m 24,7 km/h (4 Bft)
16.08.2014 18:58 16,6 C 15,0 C 78 % 1017,8 hPa 0,0 l/m 0 min 0 min 0,0 UV-I 92 W/m 42,4 km/h (6 Bft)
16.08.2014 19:00 16,6 C 15,0 C 77 % 1017,8 hPa 0,0 l/m 0 min 0 min 0,0 UV-I 98 W/m 49,5 km/h (6 Bft)
16.08.2014 19:02 16,5 C 15,0 C 78 % 1017,7 hPa 0,0 l/m 0 min 0 min 0,0 UV-I 100 W/m 38,9 km/h (6 Bft)
16.08.2014 19:04 16,5 C 15,0 C 77 % 1017,8 hPa 0,0 l/m 0 min 0 min 0,0 UV-I 102 W/m 24,7 km/h (4 Bft)
16.08.2014 19:06 16,5 C 15,0 C 77 % 1017,8 hPa 0,0 l/m 0 min 0 min 0,0 UV-I 113 W/m 35,4 km/h (5 Bft)
16.08.2014 19:08 16,6 C 15,0 C 78 % 1017,8 hPa 0,0 l/m 0 min 0 min 0,0 UV-I 114 W/m 35,4 km/h (5 Bft)
16.08.2014 19:10 16,5 C 15,0 C 77 % 1017,8 hPa 0,0 l/m 0 min 0 min 0,0 UV-I 116 W/m 38,9 km/h (6 Bft)
16.08.2014 19:12 16,5 C 15,0 C 77 % 1017,8 hPa 0,0 l/m 0 min 0 min 0,0 UV-I 112 W/m 38,9 km/h (6 Bft)
16.08.2014 19:14 16,5 C 15,0 C 77 % 1017,8 hPa 0,0 l/m 0 min 0 min 0,0 UV-I 103 W/m 46,0 km/h (6 Bft)
16.08.2014 19:16 16,6 C 15,0 C 77 % 1017,8 hPa 0,0 l/m 0 min 0 min 0,0 UV-I 91 W/m 28,2 km/h (4 Bft)
16.08.2014 19:18 16,5 C 15,0 C 77 % 1017,8 hPa 0,0 l/m 0 min 0 min 0,0 UV-I 83 W/m 38,9 km/h (6 Bft)
16.08.2014 19:20 16,5 C 15,0 C 77 % 1017,8 hPa 0,0 l/m 0 min 0 min 0,0 UV-I 79 W/m 17,7 km/h (3 Bft)
16.08.2014 19:22 16,5 C 15,0 C 77 % 1017,8 hPa 0,0 l/m 0 min 0 min 0,0 UV-I 76 W/m 28,2 km/h (4 Bft)
16.08.2014 19:24 16,4 C 15,0 C 77 % 1017,8 hPa 0,0 l/m 0 min 0 min 0,0 UV-I 76 W/m 38,9 km/h (6 Bft)
16.08.2014 19:26 16,4 C 15,0 C 78 % 1017,8 hPa 0,0 l/m 0 min 0 min 0,0 UV-I 78 W/m 31,7 km/h (5 Bft)
16.08.2014 19:28 16,4 C 15,0 C 78 % 1017,8 hPa 0,0 l/m 0 min 0 min 0,0 UV-I 84 W/m 35,4 km/h (5 Bft)
16.08.2014 19:30 16,4 C 15,0 C 77 % 1017,8 hPa 0,0 l/m 0 min 0 min 0,0 UV-I 82 W/m 31,7 km/h (5 Bft)
16.08.2014 19:32 16,4 C 15,0 C 78 % 1017,8 hPa 0,0 l/m 0 min 0 min 0,0 UV-I 77 W/m 17,7 km/h (3 Bft)
16.08.2014 19:34 16,4 C 15,0 C 78 % 1017,8 hPa 0,0 l/m 0 min 0 min 0,0 UV-I 70 W/m 28,2 km/h (4 Bft)
16.08.2014 19:36 16,3 C 15,0 C 78 % 1017,8 hPa 0,0 l/m 0 min 0 min 0,0 UV-I 62 W/m 28,2 km/h (4 Bft)
16.08.2014 19:38 16,3 C 15,0 C 78 % 1017,8 hPa 0,0 l/m 0 min 0 min 0,0 UV-I 60 W/m 28,2 km/h (4 Bft)
16.08.2014 19:40 16,2 C 14,4 C 78 % 1017,8 hPa 0,0 l/m 0 min 0 min 0,0 UV-I 58 W/m 28,2 km/h (4 Bft)
16.08.2014 19:42 16,2 C 14,4 C 79 % 1017,7 hPa 0,0 l/m 0 min 0 min 0,0 UV-I 57 W/m 24,7 km/h (4 Bft)
16.08.2014 19:44 16,1 C 14,4 C 79 % 1017,7 hPa 0,0 l/m 0 min 0 min 0,0 UV-I 51 W/m 28,2 km/h (4 Bft)
16.08.2014 19:46 16,1 C 14,4 C 78 % 1017,7 hPa 0,0 l/m 0 min 0 min 0,0 UV-I 47 W/m 35,4 km/h (5 Bft)
16.08.2014 19:48 16,1 C 14,4 C 79 % 1017,7 hPa 0,0 l/m 0 min 0 min 0,0 UV-I 43 W/m 17,7 km/h (3 Bft)
16.08.2014 19:50 16,1 C 14,4 C 79 % 1017,7 hPa 0,0 l/m 0 min 0 min 0,0 UV-I 41 W/m 17,7 km/h (3 Bft)
16.08.2014 19:52 16,0 C 14,4 C 80 % 1017,7 hPa 0,0 l/m 0 min 0 min 0,0 UV-I 40 W/m 21,3 km/h (4 Bft)
16.08.2014 19:54 15,9 C 14,4 C 80 % 1017,7 hPa 0,0 l/m 0 min 0 min 0,0 UV-I 40 W/m 10,7 km/h (2 Bft)
16.08.2014 19:56 15,9 C 14,4 C 81 % 1017,7 hPa 0,0 l/m 0 min 0 min 0,0 UV-I 41 W/m 10,7 km/h (2 Bft)
16.08.2014 19:58 15,8 C 13,9 C 81 % 1017,7 hPa 0,0 l/m 0 min 0 min 0,0 UV-I 42 W/m 10,7 km/h (2 Bft)
16.08.2014 20:00 15,7 C 13,9 C 82 % 1017,7 hPa 0,0 l/m 0 min 0 min 0,0 UV-I 45 W/m 14,2 km/h (3 Bft)
16.08.2014 20:02 15,7 C 13,9 C 82 % 1017,6 hPa 0,0 l/m 0 min 0 min 0,0 UV-I 44 W/m 7,1 km/h (2 Bft)
16.08.2014 20:04 15,7 C 13,9 C 82 % 1017,6 hPa 0,0 l/m 0 min 0 min 0,0 UV-I 44 W/m 7,1 km/h (2 Bft)
16.08.2014 20:06 15,6 C 13,9 C 82 % 1017,6 hPa 0,0 l/m 0 min 0 min 0,0 UV-I 47 W/m 3,5 km/h (1 Bft)
16.08.2014 20:08 15,6 C 13,9 C 82 % 1017,6 hPa 0,0 l/m 0 min 0 min 0,0 UV-I 46 W/m 0,0 km/h (0 Bft)
16.08.2014 20:10 15,6 C 13,9 C 83 % 1017,6 hPa 0,0 l/m 0 min 0 min 0,0 UV-I 46 W/m 3,5 km/h (1 Bft)
16.08.2014 20:12 15,6 C 13,9 C 83 % 1017,6 hPa 0,0 l/m 2 min 0 min 0,0 UV-I 46 W/m 0,0 km/h (0 Bft)
16.08.2014 20:14 15,5 C 13,9 C 84 % 1017,6 hPa 0,0 l/m 2 min 0 min 0,0 UV-I 45 W/m 0,0 km/h (0 Bft)
16.08.2014 20:16 15,4 C 13,9 C 83 % 1017,6 hPa 0,0 l/m 2 min 0 min 0,0 UV-I 42 W/m 0,0 km/h (0 Bft)
16.08.2014 20:18 15,4 C 13,9 C 83 % 1017,6 hPa 0,0 l/m 2 min 0 min 0,0 UV-I 39 W/m 10,7 km/h (2 Bft)
16.08.2014 20:20 15,4 C 13,9 C 84 % 1017,5 hPa 0,0 l/m 0 min 0 min 0,0 UV-I 35 W/m 3,5 km/h (1 Bft)
16.08.2014 20:22 15,4 C 13,9 C 84 % 1017,6 hPa 0,0 l/m 0 min 0 min 0,0 UV-I 32 W/m 0,0 km/h (0 Bft)
16.08.2014 20:24 15,3 C 13,3 C 84 % 1017,6 hPa 0,0 l/m 0 min 0 min 0,0 UV-I 29 W/m 0,0 km/h (0 Bft)
16.08.2014 20:26 15,3 C 13,3 C 85 % 1017,6 hPa 0,0 l/m 0 min 0 min 0,0 UV-I 26 W/m 3,5 km/h (1 Bft)
16.08.2014 20:28 15,2 C 13,3 C 85 % 1017,6 hPa 0,0 l/m 0 min 0 min 0,0 UV-I 25 W/m 14,2 km/h (3 Bft)
16.08.2014 20:30 15,1 C 13,3 C 85 % 1017,5 hPa 0,0 l/m 2 min 0 min 0,0 UV-I 23 W/m 7,1 km/h (2 Bft)
16.08.2014 20:32 15,1 C 13,3 C 84 % 1017,6 hPa 0,0 l/m 2 min 0 min 0,0 UV-I 21 W/m 3,5 km/h (1 Bft)
16.08.2014 20:34 15,0 C 13,3 C 85 % 1017,6 hPa 0,0 l/m 2 min 0 min 0,0 UV-I 19 W/m 0,0 km/h (0 Bft)
16.08.2014 20:36 15,0 C 12,8 C 85 % 1017,6 hPa 0,0 l/m 2 min 0 min 0,0 UV-I 18 W/m 0,0 km/h (0 Bft)
16.08.2014 20:38 14,9 C 12,8 C 85 % 1017,6 hPa 0,0 l/m 2 min 0 min 0,0 UV-I 16 W/m 0,0 km/h (0 Bft)
16.08.2014 20:40 14,9 C 12,8 C 85 % 1017,7 hPa 0,0 l/m 2 min 0 min 0,0 UV-I 14 W/m 0,0 km/h (0 Bft)
16.08.2014 20:42 14,9 C 12,8 C 85 % 1017,7 hPa 0,0 l/m 0 min 0 min 0,0 UV-I 12 W/m 0,0 km/h (0 Bft)
16.08.2014 20:44 14,8 C 12,8 C 86 % 1017,6 hPa 0,0 l/m 0 min 0 min 0,0 UV-I 11 W/m 0,0 km/h (0 Bft)
16.08.2014 20:46 14,7 C 12,8 C 86 % 1017,7 hPa 0,0 l/m 0 min 0 min 0,0 UV-I 9 W/m 0,0 km/h (0 Bft)
16.08.2014 20:48 14,7 C 12,8 C 86 % 1017,7 hPa 0,0 l/m 0 min 0 min 0,0 UV-I 8 W/m 0,0 km/h (0 Bft)
16.08.2014 20:50 14,7 C 12,8 C 86 % 1017,7 hPa 0,0 l/m 0 min 0 min 0,0 UV-I 0 W/m 10,7 km/h (2 Bft)
16.08.2014 20:52 14,7 C 12,8 C 86 % 1017,7 hPa 0,0 l/m 0 min 0 min 0,0 UV-I 0 W/m 0,0 km/h (0 Bft)
16.08.2014 20:54 14,6 C 12,2 C 86 % 1017,7 hPa 0,0 l/m 0 min 0 min 0,0 UV-I 0 W/m 0,0 km/h (0 Bft)
16.08.2014 20:56 14,5 C 12,2 C 86 % 1017,7 hPa 0,0 l/m 0 min 0 min 0,0 UV-I 0 W/m 0,0 km/h (0 Bft)
16.08.2014 20:58 14,5 C 12,2 C 87 % 1017,8 hPa 0,0 l/m 0 min 0 min 0,0 UV-I 0 W/m 0,0 km/h (0 Bft)
16.08.2014 21:00 14,4 C 12,2 C 87 % 1017,7 hPa 0,0 l/m 0 min 0 min 0,0 UV-I 0 W/m 3,5 km/h (1 Bft)
16.08.2014 21:02 14,3 C 12,2 C 88 % 1017,7 hPa 0,0 l/m 0 min 0 min 0,0 UV-I 0 W/m 0,0 km/h (0 Bft)
16.08.2014 21:04 14,2 C 12,2 C 88 % 1017,7 hPa 0,0 l/m 0 min 0 min 0,0 UV-I 0 W/m 0,0 km/h (0 Bft)
16.08.2014 21:06 14,2 C 12,2 C 88 % 1017,8 hPa 0,0 l/m 0 min 0 min 0,0 UV-I 0 W/m 0,0 km/h (0 Bft)
16.08.2014 21:08 14,1 C 12,2 C 89 % 1017,7 hPa 0,0 l/m 0 min 0 min 0,0 UV-I 0 W/m 0,0 km/h (0 Bft)
16.08.2014 21:10 14,0 C 12,2 C 89 % 1017,8 hPa 0,0 l/m 0 min 0 min 0,0 UV-I 0 W/m 0,0 km/h (0 Bft)
16.08.2014 21:12 13,9 C 12,2 C 89 % 1017,8 hPa 0,0 l/m 0 min 0 min 0,0 UV-I 0 W/m 0,0 km/h (0 Bft)
16.08.2014 21:14 13,9 C 12,2 C 89 % 1017,8 hPa 0,0 l/m 0 min 0 min 0,0 UV-I 0 W/m 0,0 km/h (0 Bft)
16.08.2014 21:16 13,9 C 12,2 C 89 % 1017,8 hPa 0,0 l/m 0 min 0 min 0,0 UV-I 0 W/m 0,0 km/h (0 Bft)
16.08.2014 21:18 13,9 C 12,2 C 89 % 1017,8 hPa 0,0 l/m 0 min 0 min 0,0 UV-I 0 W/m 0,0 km/h (0 Bft)
16.08.2014 21:20 13,9 C 11,7 C 89 % 1017,7 hPa 0,0 l/m 0 min 0 min 0,0 UV-I 0 W/m 0,0 km/h (0 Bft)
16.08.2014 21:22 13,9 C 11,7 C 89 % 1017,7 hPa 0,0 l/m 0 min 0 min 0,0 UV-I 0 W/m 0,0 km/h (0 Bft)
16.08.2014 21:24 13,9 C 11,7 C 89 % 1017,8 hPa 0,0 l/m 0 min 0 min 0,0 UV-I 0 W/m 3,5 km/h (1 Bft)
16.08.2014 21:26 13,9 C 12,2 C 89 % 1017,8 hPa 0,0 l/m 0 min 0 min 0,0 UV-I 0 W/m 7,1 km/h (2 Bft)
16.08.2014 21:28 13,8 C 12,2 C 89 % 1017,8 hPa 0,0 l/m 0 min 0 min 0,0 UV-I 0 W/m 7,1 km/h (2 Bft)
16.08.2014 21:30 13,8 C 12,2 C 90 % 1017,8 hPa 0,0 l/m 0 min 0 min 0,0 UV-I 0 W/m 14,2 km/h (3 Bft)
16.08.2014 21:32 13,8 C 12,2 C 90 % 1017,8 hPa 0,0 l/m 0 min 0 min 0,0 UV-I 0 W/m 14,2 km/h (3 Bft)
16.08.2014 21:34 13,9 C 12,2 C 90 % 1017,8 hPa 0,0 l/m 0 min 0 min 0,0 UV-I 0 W/m 0,0 km/h (0 Bft)
16.08.2014 21:36 13,9 C 12,2 C 89 % 1017,8 hPa 0,0 l/m 0 min 0 min 0,0 UV-I 0 W/m 7,1 km/h (2 Bft)
16.08.2014 21:38 14,0 C 12,2 C 89 % 1017,8 hPa 0,0 l/m 0 min 0 min 0,0 UV-I 0 W/m 10,7 km/h (2 Bft)
16.08.2014 21:40 14,1 C 12,2 C 89 % 1017,8 hPa 0,0 l/m 0 min 0 min 0,0 UV-I 0 W/m 10,7 km/h (2 Bft)
16.08.2014 21:42 14,1 C 12,2 C 89 % 1017,8 hPa 0,0 l/m 0 min 0 min 0,0 UV-I 0 W/m 7,1 km/h (2 Bft)
16.08.2014 21:44 14,2 C 12,2 C 89 % 1017,8 hPa 0,0 l/m 0 min 0 min 0,0 UV-I 0 W/m 14,2 km/h (3 Bft)
16.08.2014 21:46 14,2 C 12,2 C 88 % 1017,8 hPa 0,0 l/m 0 min 0 min 0,0 UV-I 0 W/m 14,2 km/h (3 Bft)
16.08.2014 21:48 14,2 C 12,8 C 88 % 1017,8 hPa 0,0 l/m 0 min 0 min 0,0 UV-I 0 W/m 10,7 km/h (2 Bft)
16.08.2014 21:50 14,2 C 12,8 C 87 % 1017,7 hPa 0,0 l/m 0 min 0 min 0,0 UV-I 0 W/m 10,7 km/h (2 Bft)
16.08.2014 21:52 14,2 C 12,8 C 87 % 1017,8 hPa 0,0 l/m 0 min 0 min 0,0 UV-I 0 W/m 0,0 km/h (0 Bft)
16.08.2014 21:54 14,2 C 12,8 C 86 % 1017,7 hPa 0,0 l/m 0 min 0 min 0,0 UV-I 0 W/m 14,2 km/h (3 Bft)
16.08.2014 21:56 14,2 C 12,8 C 86 % 1017,7 hPa 0,0 l/m 0 min 0 min 0,0 UV-I 0 W/m 14,2 km/h (3 Bft)
16.08.2014 21:58 14,2 C 12,8 C 86 % 1017,7 hPa 0,0 l/m 0 min 0 min 0,0 UV-I 0 W/m 14,2 km/h (3 Bft)
16.08.2014 22:00 14,2 C 12,8 C 86 % 1017,7 hPa 0,0 l/m 0 min 0 min 0,0 UV-I 0 W/m 17,7 km/h (3 Bft)
16.08.2014 22:02 14,2 C 12,8 C 86 % 1017,7 hPa 0,0 l/m 0 min 0 min 0,0 UV-I 0 W/m 14,2 km/h (3 Bft)
16.08.2014 22:04 14,2 C 12,8 C 86 % 1017,7 hPa 0,0 l/m 0 min 0 min 0,0 UV-I 0 W/m 14,2 km/h (3 Bft)
16.08.2014 22:06 14,2 C 12,8 C 86 % 1017,7 hPa 0,0 l/m 0 min 0 min 0,0 UV-I 0 W/m 10,7 km/h (2 Bft)
16.08.2014 22:08 14,2 C 12,2 C 87 % 1017,7 hPa 0,0 l/m 0 min 0 min 0,0 UV-I 0 W/m 10,7 km/h (2 Bft)
16.08.2014 22:10 14,0 C 12,2 C 87 % 1017,6 hPa 0,0 l/m 0 min 0 min 0,0 UV-I 0 W/m 10,7 km/h (2 Bft)
16.08.2014 22:12 13,9 C 12,2 C 87 % 1017,7 hPa 0,0 l/m 0 min 0 min 0,0 UV-I 0 W/m 14,2 km/h (3 Bft)
16.08.2014 22:14 13,9 C 12,2 C 87 % 1017,6 hPa 0,0 l/m 0 min 0 min 0,0 UV-I 0 W/m 17,7 km/h (3 Bft)
16.08.2014 22:16 13,9 C 12,2 C 87 % 1017,6 hPa 0,0 l/m 0 min 0 min 0,0 UV-I 0 W/m 10,7 km/h (2 Bft)
16.08.2014 22:18 13,9 C 12,2 C 87 % 1017,6 hPa 0,0 l/m 0 min 0 min 0,0 UV-I 0 W/m 0,0 km/h (0 Bft)
16.08.2014 22:20 13,9 C 12,2 C 87 % 1017,5 hPa 0,0 l/m 0 min 0 min 0,0 UV-I 0 W/m 14,2 km/h (3 Bft)
16.08.2014 22:22 13,9 C 12,2 C 87 % 1017,5 hPa 0,0 l/m 0 min 0 min 0,0 UV-I 0 W/m 17,7 km/h (3 Bft)
16.08.2014 22:24 14,0 C 12,2 C 87 % 1017,6 hPa 0,0 l/m 0 min 0 min 0,0 UV-I 0 W/m 17,7 km/h (3 Bft)
16.08.2014 22:26 14,1 C 12,2 C 86 % 1017,5 hPa 0,0 l/m 0 min 0 min 0,0 UV-I 0 W/m 14,2 km/h (3 Bft)
16.08.2014 22:28 14,1 C 12,2 C 86 % 1017,5 hPa 0,0 l/m 0 min 0 min 0,0 UV-I 0 W/m 14,2 km/h (3 Bft)
16.08.2014 22:30 14,1 C 12,2 C 86 % 1017,5 hPa 0,0 l/m 0 min 0 min 0,0 UV-I 0 W/m 14,2 km/h (3 Bft)
16.08.2014 22:32 14,1 C 12,2 C 86 % 1017,4 hPa 0,0 l/m 0 min 0 min 0,0 UV-I 0 W/m 17,7 km/h (3 Bft)
16.08.2014 22:34 14,1 C 12,8 C 86 % 1017,4 hPa 0,0 l/m 0 min 0 min 0,0 UV-I 0 W/m 21,3 km/h (4 Bft)
16.08.2014 22:36 14,1 C 12,2 C 86 % 1017,4 hPa 0,0 l/m 0 min 0 min 0,0 UV-I 0 W/m 14,2 km/h (3 Bft)
16.08.2014 22:38 14,1 C 12,2 C 86 % 1017,5 hPa 0,0 l/m 0 min 0 min 0,0 UV-I 0 W/m 10,7 km/h (2 Bft)
16.08.2014 22:40 14,0 C 12,2 C 87 % 1017,4 hPa 0,0 l/m 0 min 0 min 0,0 UV-I 0 W/m 14,2 km/h (3 Bft)
16.08.2014 22:42 13,9 C 12,2 C 87 % 1017,4 hPa 0,0 l/m 0 min 0 min 0,0 UV-I 0 W/m 14,2 km/h (3 Bft)
16.08.2014 22:44 13,9 C 12,2 C 87 % 1017,4 hPa 0,0 l/m 0 min 0 min 0,0 UV-I 0 W/m 17,7 km/h (3 Bft)
16.08.2014 22:46 13,8 C 12,2 C 87 % 1017,4 hPa 0,0 l/m 0 min 0 min 0,0 UV-I 0 W/m 10,7 km/h (2 Bft)
16.08.2014 22:48 13,8 C 12,2 C 87 % 1017,4 hPa 0,0 l/m 0 min 0 min 0,0 UV-I 0 W/m 14,2 km/h (3 Bft)
16.08.2014 22:50 13,7 C 12,2 C 88 % 1017,3 hPa 0,0 l/m 0 min 0 min 0,0 UV-I 0 W/m 14,2 km/h (3 Bft)
16.08.2014 22:52 13,7 C 12,2 C 88 % 1017,4 hPa 0,0 l/m 0 min 0 min 0,0 UV-I 0 W/m 10,7 km/h (2 Bft)
16.08.2014 22:54 13,7 C 12,2 C 88 % 1017,4 hPa 0,0 l/m 0 min 0 min 0,0 UV-I 0 W/m 17,7 km/h (3 Bft)
16.08.2014 22:56 13,6 C 11,7 C 88 % 1017,3 hPa 0,0 l/m 0 min 0 min 0,0 UV-I 0 W/m 7,1 km/h (2 Bft)
16.08.2014 22:58 13,6 C 11,7 C 88 % 1017,3 hPa 0,0 l/m 0 min 0 min 0,0 UV-I 0 W/m 3,5 km/h (1 Bft)
16.08.2014 23:00 13,6 C 11,7 C 88 % 1017,3 hPa 0,0 l/m 0 min 0 min 0,0 UV-I 0 W/m 17,7 km/h (3 Bft)
16.08.2014 23:02 13,6 C 11,7 C 88 % 1017,4 hPa 0,0 l/m 0 min 0 min 0,0 UV-I 0 W/m 17,7 km/h (3 Bft)
16.08.2014 23:04 13,5 C 11,7 C 89 % 1017,3 hPa 0,0 l/m 0 min 0 min 0,0 UV-I 0 W/m 10,7 km/h (2 Bft)
16.08.2014 23:06 13,4 C 11,7 C 89 % 1017,2 hPa 0,0 l/m 0 min 0 min 0,0 UV-I 0 W/m 14,2 km/h (3 Bft)
16.08.2014 23:08 13,4 C 11,7 C 89 % 1017,2 hPa 0,0 l/m 0 min 0 min 0,0 UV-I 0 W/m 17,7 km/h (3 Bft)
16.08.2014 23:10 13,3 C 11,7 C 89 % 1017,2 hPa 0,0 l/m 0 min 0 min 0,0 UV-I 0 W/m 17,7 km/h (3 Bft)
16.08.2014 23:12 13,3 C 11,7 C 90 % 1017,2 hPa 0,0 l/m 0 min 0 min 0,0 UV-I 0 W/m 10,7 km/h (2 Bft)
16.08.2014 23:14 13,2 C 11,7 C 90 % 1017,2 hPa 0,0 l/m 0 min 0 min 0,0 UV-I 0 W/m 10,7 km/h (2 Bft)
16.08.2014 23:16 13,2 C 11,7 C 90 % 1017,2 hPa 0,0 l/m 0 min 0 min 0,0 UV-I 0 W/m 0,0 km/h (0 Bft)
16.08.2014 23:18 13,2 C 11,7 C 90 % 1017,1 hPa 0,0 l/m 0 min 0 min 0,0 UV-I 0 W/m 10,7 km/h (2 Bft)
16.08.2014 23:20 13,1 C 11,7 C 90 % 1017,1 hPa 0,0 l/m 0 min 0 min 0,0 UV-I 0 W/m 14,2 km/h (3 Bft)
16.08.2014 23:22 13,1 C 11,7 C 90 % 1017,2 hPa 0,0 l/m 0 min 0 min 0,0 UV-I 0 W/m 10,7 km/h (2 Bft)
16.08.2014 23:24 13,1 C 11,1 C 91 % 1017,2 hPa 0,0 l/m 0 min 0 min 0,0 UV-I 0 W/m 0,0 km/h (0 Bft)
16.08.2014 23:26 13,0 C 11,1 C 90 % 1017,1 hPa 0,0 l/m 0 min 0 min 0,0 UV-I 0 W/m 0,0 km/h (0 Bft)
16.08.2014 23:28 13,0 C 11,1 C 91 % 1017,2 hPa 0,0 l/m 0 min 0 min 0,0 UV-I 0 W/m 0,0 km/h (0 Bft)
16.08.2014 23:30 12,9 C 11,1 C 91 % 1017,1 hPa 0,0 l/m 0 min 0 min 0,0 UV-I 0 W/m 10,7 km/h (2 Bft)
16.08.2014 23:32 12,9 C 11,1 C 91 % 1017,1 hPa 0,0 l/m 0 min 0 min 0,0 UV-I 0 W/m 7,1 km/h (2 Bft)
16.08.2014 23:34 12,9 C 11,1 C 91 % 1017,1 hPa 0,0 l/m 0 min 0 min 0,0 UV-I 0 W/m 0,0 km/h (0 Bft)
16.08.2014 23:36 12,9 C 11,1 C 91 % 1017,0 hPa 0,0 l/m 0 min 0 min 0,0 UV-I 0 W/m 0,0 km/h (0 Bft)
16.08.2014 23:38 12,9 C 11,1 C 91 % 1017,0 hPa 0,0 l/m 0 min 0 min 0,0 UV-I 0 W/m 0,0 km/h (0 Bft)
16.08.2014 23:40 12,9 C 11,1 C 91 % 1016,9 hPa 0,0 l/m 0 min 0 min 0,0 UV-I 0 W/m 0,0 km/h (0 Bft)
16.08.2014 23:42 12,9 C 11,1 C 91 % 1016,9 hPa 0,0 l/m 0 min 0 min 0,0 UV-I 0 W/m 0,0 km/h (0 Bft)
16.08.2014 23:44 12,9 C 11,1 C 91 % 1016,9 hPa 0,0 l/m 0 min 0 min 0,0 UV-I 0 W/m 0,0 km/h (0 Bft)
16.08.2014 23:46 12,9 C 11,1 C 91 % 1016,9 hPa 0,0 l/m 0 min 0 min 0,0 UV-I 0 W/m 10,7 km/h (2 Bft)
16.08.2014 23:48 12,8 C 11,1 C 91 % 1016,9 hPa 0,0 l/m 0 min 0 min 0,0 UV-I 0 W/m 0,0 km/h (0 Bft)
16.08.2014 23:50 12,9 C 11,1 C 91 % 1016,9 hPa 0,0 l/m 0 min 0 min 0,0 UV-I 0 W/m 0,0 km/h (0 Bft)
16.08.2014 23:52 12,9 C 11,1 C 91 % 1016,9 hPa 0,0 l/m 0 min 0 min 0,0 UV-I 0 W/m 0,0 km/h (0 Bft)
16.08.2014 23:54 12,9 C 11,1 C 91 % 1016,8 hPa 0,0 l/m 0 min 0 min 0,0 UV-I 0 W/m 0,0 km/h (0 Bft)
16.08.2014 23:56 12,8 C 11,1 C 91 % 1016,8 hPa 0,0 l/m 0 min 0 min 0,0 UV-I 0 W/m 17,7 km/h (3 Bft)
16.08.2014 23:58 12,9 C 11,1 C 91 % 1016,8 hPa 0,0 l/m 0 min 0 min 0,0 UV-I 0 W/m 14,2 km/h (3 Bft)
_ Min-Zeit 06:40 06:06 13:14 00:00 - - - - - 00:06
Minimum _ 12,1 C 11,1 C 68 % 1015,9 hPa - - - - - 0,0 km/h (0 Bft)
_ Max-Zeit 12:34 13:36 07:34 10:56 15:46 06:54 03:06 13:36 13:34 14:34
Maximum _ 21,0 C 20,6 C 99 % 1019,3 hPa 0,8 l/m 2 min 2 min 4,5 UV-I 956 W/m 63,7 km/h
NW (8 Bft)
Durchschnitt _ 15,1 C 13,8 C 90 % 1017,8 hPa #4,4 l/m #4:06 h #1:24 h 1,9 UV-I 227 W/m 19,7 km/h (3 Bft)
© 2014 W. Hausmann